Wetterdaten: Sonntag, 26.05.2019
Datum Zeit Temp. Aussen Temp. o. S. +5cm Feuchte Auss Luftdruck Regen Sonnenschein Regendauer Solar Windben Empfang
26.05.2019 00:00 13,1 C 10,6 C 10,0 C 79 % 1017,2 hPa 0,0 l/m 0 min 0 min 0 W/m 0,0 km/h (0 Bft) 97,87 %
26.05.2019 00:02 13,1 C 10,6 C 10,0 C 80 % 1017,2 hPa 0,0 l/m 0 min 0 min 0 W/m 0,0 km/h (0 Bft) 97,83 %
26.05.2019 00:04 13,1 C 10,6 C 10,0 C 80 % 1017,2 hPa 0,0 l/m 0 min 0 min 0 W/m 0,0 km/h (0 Bft) 100,00 %
26.05.2019 00:08 12,9 C 10,6 C 10,0 C 80 % 1017,2 hPa 0,0 l/m 0 min 0 min 0 W/m 0,0 km/h (0 Bft) 98,92 %
26.05.2019 00:10 12,9 C 10,6 C 10,0 C 80 % 1017,2 hPa 0,0 l/m 0 min 0 min 0 W/m 0,0 km/h (0 Bft) 97,87 %
26.05.2019 00:12 12,8 C 10,6 C 10,0 C 80 % 1017,2 hPa 0,0 l/m 0 min 0 min 0 W/m 0,0 km/h (0 Bft) 97,87 %
26.05.2019 00:14 12,8 C 10,6 C 10,0 C 80 % 1017,1 hPa 0,0 l/m 0 min 0 min 0 W/m 3,2 km/h (1 Bft) 100,00 %
26.05.2019 00:16 12,8 C 10,6 C 10,0 C 80 % 1017,1 hPa 0,0 l/m 0 min 0 min 0 W/m 3,2 km/h (1 Bft) 97,87 %
26.05.2019 00:18 12,7 C 10,6 C 10,0 C 80 % 1017,2 hPa 0,0 l/m 0 min 0 min 0 W/m 0,0 km/h (0 Bft) 100,00 %
26.05.2019 00:20 12,7 C 10,6 C 10,0 C 80 % 1017,1 hPa 0,0 l/m 0 min 0 min 0 W/m 0,0 km/h (0 Bft) 100,00 %
26.05.2019 00:22 12,7 C 10,6 C 10,0 C 80 % 1017,1 hPa 0,0 l/m 0 min 0 min 0 W/m 0,0 km/h (0 Bft) 100,00 %
26.05.2019 00:24 12,6 C 11,1 C 10,0 C 80 % 1017,0 hPa 0,0 l/m 0 min 0 min 0 W/m 0,0 km/h (0 Bft) 100,00 %
26.05.2019 00:26 12,6 C 11,1 C 10,0 C 80 % 1017,0 hPa 0,0 l/m 0 min 0 min 0 W/m 0,0 km/h (0 Bft) 100,00 %
26.05.2019 00:28 12,6 C 11,1 C 10,0 C 80 % 1017,0 hPa 0,0 l/m 0 min 0 min 0 W/m 0,0 km/h (0 Bft) 100,00 %
26.05.2019 00:30 12,5 C 10,6 C 10,0 C 80 % 1017,0 hPa 0,0 l/m 0 min 0 min 0 W/m 0,0 km/h (0 Bft) 100,00 %
26.05.2019 00:32 12,5 C 10,6 C 9,4 C 80 % 1017,0 hPa 0,0 l/m 0 min 0 min 0 W/m 0,0 km/h (0 Bft) 100,00 %
26.05.2019 00:34 12,4 C 10,6 C 9,4 C 80 % 1017,0 hPa 0,0 l/m 0 min 0 min 0 W/m 0,0 km/h (0 Bft) 100,00 %
26.05.2019 00:36 12,4 C 10,6 C 9,4 C 80 % 1017,0 hPa 0,0 l/m 0 min 0 min 0 W/m 0,0 km/h (0 Bft) 100,00 %
26.05.2019 00:38 12,4 C 10,6 C 10,0 C 80 % 1017,0 hPa 0,0 l/m 0 min 0 min 0 W/m 3,2 km/h (1 Bft) 100,00 %
26.05.2019 00:40 12,4 C 11,1 C 10,0 C 81 % 1017,0 hPa 0,0 l/m 0 min 0 min 0 W/m 3,2 km/h (1 Bft) 97,87 %
26.05.2019 00:42 12,3 C 11,1 C 10,0 C 81 % 1017,0 hPa 0,0 l/m 0 min 0 min 0 W/m 0,0 km/h (0 Bft) 100,00 %
26.05.2019 00:44 12,3 C 11,1 C 10,0 C 81 % 1017,0 hPa 0,0 l/m 0 min 0 min 0 W/m 0,0 km/h (0 Bft) 97,87 %
26.05.2019 00:46 12,3 C 11,1 C 10,0 C 81 % 1016,9 hPa 0,0 l/m 0 min 0 min 0 W/m 0,0 km/h (0 Bft) 100,00 %
26.05.2019 00:48 12,2 C 10,6 C 10,0 C 81 % 1016,9 hPa 0,0 l/m 0 min 0 min 0 W/m 0,0 km/h (0 Bft) 100,00 %
26.05.2019 00:50 12,2 C 10,6 C 10,0 C 81 % 1016,9 hPa 0,0 l/m 0 min 0 min 0 W/m 0,0 km/h (0 Bft) 100,00 %
26.05.2019 00:52 12,2 C 10,6 C 10,0 C 82 % 1017,0 hPa 0,0 l/m 0 min 0 min 0 W/m 3,2 km/h (1 Bft) 100,00 %
26.05.2019 00:54 12,2 C 10,6 C 10,0 C 82 % 1017,0 hPa 0,0 l/m 0 min 0 min 0 W/m 3,2 km/h (1 Bft) 100,00 %
26.05.2019 00:56 12,1 C 10,6 C 10,0 C 82 % 1017,0 hPa 0,0 l/m 0 min 0 min 0 W/m 0,0 km/h (0 Bft) 100,00 %
26.05.2019 00:58 12,1 C 10,6 C 9,4 C 82 % 1017,0 hPa 0,0 l/m 0 min 0 min 0 W/m 0,0 km/h (0 Bft) 100,00 %
26.05.2019 01:00 12,1 C 11,1 C 10,0 C 82 % 1017,0 hPa 0,0 l/m 0 min 0 min 0 W/m 3,2 km/h (1 Bft) 100,00 %
26.05.2019 01:02 12,1 C 11,1 C 10,0 C 82 % 1016,9 hPa 0,0 l/m 0 min 0 min 0 W/m 3,2 km/h (1 Bft) 97,87 %
26.05.2019 01:04 12,1 C 11,1 C 10,0 C 82 % 1017,0 hPa 0,0 l/m 0 min 0 min 0 W/m 0,0 km/h (0 Bft) 100,00 %
26.05.2019 01:06 12,0 C 11,1 C 10,0 C 82 % 1016,9 hPa 0,0 l/m 0 min 0 min 0 W/m 3,2 km/h (1 Bft) 100,00 %
26.05.2019 01:08 12,0 C 11,1 C 10,0 C 82 % 1016,9 hPa 0,0 l/m 0 min 0 min 0 W/m 0,0 km/h (0 Bft) 100,00 %
26.05.2019 01:10 12,0 C 11,1 C 10,0 C 82 % 1016,8 hPa 0,0 l/m 0 min 0 min 0 W/m 0,0 km/h (0 Bft) 100,00 %
26.05.2019 01:12 11,9 C 11,1 C 10,0 C 83 % 1016,8 hPa 0,0 l/m 0 min 0 min 0 W/m 0,0 km/h (0 Bft) 93,62 %
26.05.2019 01:14 11,9 C 11,1 C 10,0 C 83 % 1016,8 hPa 0,0 l/m 0 min 0 min 0 W/m 3,2 km/h (1 Bft) 93,62 %
26.05.2019 01:16 11,9 C 11,1 C 10,0 C 83 % 1016,8 hPa 0,0 l/m 0 min 0 min 0 W/m 3,2 km/h (1 Bft) 95,65 %
26.05.2019 01:18 11,9 C 11,1 C 10,0 C 83 % 1016,7 hPa 0,0 l/m 0 min 0 min 0 W/m 0,0 km/h (0 Bft) 93,62 %
26.05.2019 01:20 11,9 C 11,7 C 10,0 C 83 % 1016,7 hPa 0,0 l/m 0 min 0 min 0 W/m 3,2 km/h (1 Bft) 95,74 %
26.05.2019 01:22 11,9 C 11,7 C 10,0 C 83 % 1016,7 hPa 0,0 l/m 0 min 0 min 0 W/m 6,4 km/h (2 Bft) 93,62 %
26.05.2019 01:24 11,9 C 11,7 C 10,6 C 83 % 1016,7 hPa 0,0 l/m 0 min 0 min 0 W/m 6,4 km/h (2 Bft) 95,74 %
26.05.2019 01:26 11,9 C 11,7 C 10,6 C 83 % 1016,7 hPa 0,0 l/m 0 min 0 min 0 W/m 3,2 km/h (1 Bft) 95,74 %
26.05.2019 01:28 11,9 C 11,7 C 10,6 C 83 % 1016,7 hPa 0,0 l/m 0 min 0 min 0 W/m 3,2 km/h (1 Bft) 95,65 %
26.05.2019 01:30 11,9 C 11,7 C 10,6 C 83 % 1016,7 hPa 0,0 l/m 0 min 0 min 0 W/m 6,4 km/h (2 Bft) 93,62 %
26.05.2019 01:32 11,9 C 11,7 C 10,6 C 83 % 1016,7 hPa 0,0 l/m 0 min 0 min 0 W/m 0,0 km/h (0 Bft) 93,62 %
26.05.2019 01:34 11,9 C 11,7 C 10,6 C 83 % 1016,8 hPa 0,0 l/m 0 min 0 min 0 W/m 0,0 km/h (0 Bft) 95,74 %
26.05.2019 01:36 11,9 C 11,1 C 10,0 C 83 % 1016,7 hPa 0,0 l/m 0 min 0 min 0 W/m 0,0 km/h (0 Bft) 95,74 %
26.05.2019 01:38 11,9 C 11,1 C 10,0 C 83 % 1016,7 hPa 0,0 l/m 0 min 0 min 0 W/m 0,0 km/h (0 Bft) 95,74 %
26.05.2019 01:40 11,9 C 11,1 C 10,0 C 83 % 1016,6 hPa 0,0 l/m 0 min 0 min 0 W/m 0,0 km/h (0 Bft) 95,65 %
26.05.2019 01:42 11,9 C 10,6 C 10,0 C 83 % 1016,7 hPa 0,0 l/m 0 min 0 min 0 W/m 0,0 km/h (0 Bft) 95,74 %
26.05.2019 01:44 11,9 C 10,6 C 9,4 C 83 % 1016,6 hPa 0,0 l/m 0 min 0 min 0 W/m 0,0 km/h (0 Bft) 97,87 %
26.05.2019 01:46 11,9 C 10,0 C 9,4 C 83 % 1016,7 hPa 0,0 l/m 0 min 0 min 0 W/m 0,0 km/h (0 Bft) 97,87 %
26.05.2019 01:48 11,9 C 10,0 C 9,4 C 83 % 1016,7 hPa 0,0 l/m 0 min 0 min 0 W/m 0,0 km/h (0 Bft) 95,74 %
26.05.2019 01:50 11,9 C 10,0 C 9,4 C 83 % 1016,7 hPa 0,0 l/m 0 min 0 min 0 W/m 0,0 km/h (0 Bft) 97,87 %
26.05.2019 01:52 11,9 C 10,0 C 9,4 C 83 % 1016,6 hPa 0,0 l/m 0 min 0 min 0 W/m 0,0 km/h (0 Bft) 97,83 %
26.05.2019 01:54 11,8 C 9,4 C 9,4 C 83 % 1016,6 hPa 0,0 l/m 0 min 0 min 0 W/m 0,0 km/h (0 Bft) 97,87 %
26.05.2019 01:56 11,8 C 9,4 C 8,9 C 83 % 1016,6 hPa 0,0 l/m 0 min 0 min 0 W/m 0,0 km/h (0 Bft) 95,74 %
26.05.2019 01:58 11,8 C 9,4 C 8,9 C 83 % 1016,6 hPa 0,0 l/m 0 min 0 min 0 W/m 0,0 km/h (0 Bft) 97,87 %
26.05.2019 02:00 11,8 C 10,0 C 9,4 C 83 % 1016,6 hPa 0,0 l/m 0 min 0 min 0 W/m 0,0 km/h (0 Bft) 95,74 %
26.05.2019 02:02 11,8 C 10,0 C 8,9 C 83 % 1016,6 hPa 0,0 l/m 0 min 0 min 0 W/m 0,0 km/h (0 Bft) 97,83 %
26.05.2019 02:04 11,7 C 10,0 C 8,9 C 82 % 1016,5 hPa 0,0 l/m 0 min 0 min 0 W/m 0,0 km/h (0 Bft) 97,87 %
26.05.2019 02:06 11,7 C 9,4 C 8,9 C 82 % 1016,5 hPa 0,0 l/m 0 min 0 min 0 W/m 0,0 km/h (0 Bft) 97,87 %
26.05.2019 02:08 11,7 C 9,4 C 8,9 C 82 % 1016,6 hPa 0,0 l/m 0 min 0 min 0 W/m 0,0 km/h (0 Bft) 100,00 %
26.05.2019 02:10 11,7 C 9,4 C 8,9 C 82 % 1016,5 hPa 0,0 l/m 0 min 0 min 0 W/m 0,0 km/h (0 Bft) 100,00 %
26.05.2019 02:12 11,6 C 9,4 C 8,9 C 82 % 1016,5 hPa 0,0 l/m 0 min 0 min 0 W/m 0,0 km/h (0 Bft) 97,87 %
26.05.2019 02:14 11,6 C 9,4 C 8,9 C 83 % 1016,5 hPa 0,0 l/m 0 min 0 min 0 W/m 0,0 km/h (0 Bft) 100,00 %
26.05.2019 02:16 11,6 C 9,4 C 8,9 C 83 % 1016,5 hPa 0,0 l/m 0 min 0 min 0 W/m 0,0 km/h (0 Bft) 100,00 %
26.05.2019 02:18 11,5 C 9,4 C 8,9 C 83 % 1016,4 hPa 0,0 l/m 0 min 0 min 0 W/m 0,0 km/h (0 Bft) 100,00 %
26.05.2019 02:20 11,5 C 9,4 C 8,9 C 83 % 1016,5 hPa 0,0 l/m 0 min 0 min 0 W/m 0,0 km/h (0 Bft) 100,00 %
26.05.2019 02:22 11,4 C 9,4 C 8,9 C 83 % 1016,4 hPa 0,0 l/m 0 min 0 min 0 W/m 0,0 km/h (0 Bft) 97,87 %
26.05.2019 02:24 11,4 C 9,4 C 8,9 C 83 % 1016,5 hPa 0,0 l/m 0 min 0 min 0 W/m 0,0 km/h (0 Bft) 100,00 %
26.05.2019 02:26 11,4 C 9,4 C 8,9 C 83 % 1016,5 hPa 0,0 l/m 0 min 0 min 0 W/m 0,0 km/h (0 Bft) 100,00 %
26.05.2019 02:28 11,4 C 9,4 C 8,9 C 83 % 1016,5 hPa 0,0 l/m 0 min 0 min 0 W/m 3,2 km/h (1 Bft) 100,00 %
26.05.2019 02:30 11,3 C 9,4 C 8,9 C 83 % 1016,4 hPa 0,0 l/m 0 min 0 min 0 W/m 3,2 km/h (1 Bft) 100,00 %
26.05.2019 02:32 11,3 C 9,4 C 8,9 C 83 % 1016,4 hPa 0,0 l/m 0 min 0 min 0 W/m 0,0 km/h (0 Bft) 97,87 %
26.05.2019 02:34 11,3 C 9,4 C 8,9 C 83 % 1016,4 hPa 0,0 l/m 0 min 0 min 0 W/m 0,0 km/h (0 Bft) 97,87 %
26.05.2019 02:36 11,2 C 9,4 C 8,9 C 83 % 1016,4 hPa 0,0 l/m 0 min 0 min 0 W/m 3,2 km/h (1 Bft) 100,00 %
26.05.2019 02:38 11,2 C 10,0 C 8,9 C 84 % 1016,4 hPa 0,0 l/m 0 min 0 min 0 W/m 3,2 km/h (1 Bft) 100,00 %
26.05.2019 02:40 11,2 C 10,0 C 8,9 C 84 % 1016,4 hPa 0,0 l/m 0 min 0 min 0 W/m 3,2 km/h (1 Bft) 100,00 %
26.05.2019 02:42 11,2 C 10,6 C 9,4 C 84 % 1016,3 hPa 0,0 l/m 0 min 0 min 0 W/m 3,2 km/h (1 Bft) 100,00 %
26.05.2019 02:44 11,2 C 10,6 C 10,0 C 85 % 1016,3 hPa 0,0 l/m 0 min 0 min 0 W/m 0,0 km/h (0 Bft) 100,00 %
26.05.2019 02:46 11,2 C 10,6 C 10,0 C 85 % 1016,4 hPa 0,0 l/m 0 min 0 min 0 W/m 0,0 km/h (0 Bft) 100,00 %
26.05.2019 02:48 11,2 C 11,1 C 10,0 C 86 % 1016,4 hPa 0,0 l/m 0 min 0 min 0 W/m 0,0 km/h (0 Bft) 100,00 %
26.05.2019 02:50 11,2 C 10,6 C 10,0 C 86 % 1016,3 hPa 0,0 l/m 0 min 0 min 0 W/m 0,0 km/h (0 Bft) 100,00 %
26.05.2019 02:52 11,2 C 11,1 C 10,6 C 86 % 1016,3 hPa 0,0 l/m 0 min 0 min 0 W/m 6,4 km/h (2 Bft) 97,87 %
26.05.2019 02:54 11,2 C 11,1 C 10,6 C 86 % 1016,3 hPa 0,0 l/m 0 min 0 min 0 W/m 6,4 km/h (2 Bft) 97,87 %
26.05.2019 02:56 11,3 C 11,1 C 10,6 C 86 % 1016,3 hPa 0,0 l/m 0 min 0 min 0 W/m 6,4 km/h (2 Bft) 97,87 %
26.05.2019 02:58 11,3 C 11,1 C 10,6 C 87 % 1016,3 hPa 0,0 l/m 0 min 0 min 0 W/m 6,4 km/h (2 Bft) 100,00 %
26.05.2019 03:00 11,3 C 11,1 C 10,6 C 87 % 1016,3 hPa 0,0 l/m 0 min 0 min 0 W/m 3,2 km/h (1 Bft) 97,83 %
26.05.2019 03:02 11,3 C 10,6 C 10,6 C 87 % 1016,2 hPa 0,0 l/m 0 min 0 min 0 W/m 3,2 km/h (1 Bft) 95,74 %
26.05.2019 03:04 11,3 C 11,1 C 10,6 C 87 % 1016,2 hPa 0,0 l/m 0 min 0 min 0 W/m 3,2 km/h (1 Bft) 95,74 %
26.05.2019 03:06 11,3 C 11,1 C 10,6 C 87 % 1016,2 hPa 0,0 l/m 0 min 0 min 0 W/m 0,0 km/h (0 Bft) 95,74 %
26.05.2019 03:08 11,3 C 11,1 C 10,6 C 87 % 1016,2 hPa 0,0 l/m 0 min 0 min 0 W/m 3,2 km/h (1 Bft) 95,74 %
26.05.2019 03:10 11,4 C 11,1 C 10,6 C 87 % 1016,3 hPa 0,0 l/m 0 min 0 min 0 W/m 3,2 km/h (1 Bft) 95,74 %
26.05.2019 03:12 11,4 C 11,1 C 11,1 C 87 % 1016,3 hPa 0,0 l/m 0 min 0 min 0 W/m 3,2 km/h (1 Bft) 95,65 %
26.05.2019 03:14 11,4 C 11,1 C 10,6 C 87 % 1016,2 hPa 0,0 l/m 0 min 0 min 0 W/m 6,4 km/h (2 Bft) 95,74 %
26.05.2019 03:16 11,4 C 11,1 C 11,1 C 87 % 1016,3 hPa 0,0 l/m 0 min 0 min 0 W/m 6,4 km/h (2 Bft) 93,62 %
26.05.2019 03:18 11,4 C 11,1 C 11,1 C 87 % 1016,2 hPa 0,0 l/m 0 min 0 min 0 W/m 3,2 km/h (1 Bft) 95,74 %
26.05.2019 03:20 11,5 C 11,1 C 11,1 C 88 % 1016,2 hPa 0,0 l/m 0 min 0 min 0 W/m 6,4 km/h (2 Bft) 95,74 %
26.05.2019 03:22 11,5 C 11,1 C 11,1 C 88 % 1016,1 hPa 0,0 l/m 0 min 0 min 0 W/m 6,4 km/h (2 Bft) 95,74 %
26.05.2019 03:24 11,6 C 11,1 C 11,1 C 88 % 1016,1 hPa 0,0 l/m 0 min 0 min 0 W/m 3,2 km/h (1 Bft) 91,49 %
26.05.2019 03:26 11,6 C 11,1 C 11,1 C 87 % 1016,2 hPa 0,0 l/m 0 min 0 min 0 W/m 3,2 km/h (1 Bft) 95,65 %
26.05.2019 03:28 11,6 C 11,1 C 11,1 C 87 % 1016,2 hPa 0,0 l/m 0 min 0 min 0 W/m 6,4 km/h (2 Bft) 95,74 %
26.05.2019 03:30 11,6 C 11,1 C 11,1 C 87 % 1016,3 hPa 0,0 l/m 0 min 0 min 0 W/m 9,7 km/h (2 Bft) 95,74 %
26.05.2019 03:32 11,6 C 11,1 C 11,1 C 87 % 1016,2 hPa 0,0 l/m 0 min 0 min 0 W/m 6,4 km/h (2 Bft) 95,74 %
26.05.2019 03:34 11,6 C 11,1 C 10,6 C 87 % 1016,3 hPa 0,0 l/m 0 min 0 min 0 W/m 6,4 km/h (2 Bft) 95,74 %
26.05.2019 03:36 11,7 C 10,6 C 10,6 C 87 % 1016,2 hPa 0,0 l/m 0 min 0 min 0 W/m 6,4 km/h (2 Bft) 95,65 %
26.05.2019 03:38 11,7 C 10,6 C 10,6 C 87 % 1016,2 hPa 0,0 l/m 0 min 0 min 0 W/m 3,2 km/h (1 Bft) 95,74 %
26.05.2019 03:40 11,6 C 10,6 C 10,6 C 87 % 1016,2 hPa 0,0 l/m 0 min 0 min 0 W/m 9,7 km/h (2 Bft) 95,74 %
26.05.2019 03:42 11,7 C 10,6 C 10,6 C 87 % 1016,2 hPa 0,0 l/m 0 min 0 min 0 W/m 3,2 km/h (1 Bft) 93,62 %
26.05.2019 03:44 11,6 C 10,6 C 10,6 C 87 % 1016,2 hPa 0,0 l/m 0 min 0 min 0 W/m 6,4 km/h (2 Bft) 93,62 %
26.05.2019 03:46 11,6 C 10,6 C 10,6 C 87 % 1016,3 hPa 0,0 l/m 0 min 0 min 0 W/m 3,2 km/h (1 Bft) 97,87 %
26.05.2019 03:48 11,6 C 10,6 C 10,6 C 87 % 1016,2 hPa 0,0 l/m 0 min 0 min 0 W/m 6,4 km/h (2 Bft) 97,83 %
26.05.2019 03:50 11,6 C 10,6 C 10,6 C 87 % 1016,2 hPa 0,0 l/m 0 min 0 min 0 W/m 6,4 km/h (2 Bft) 97,87 %
26.05.2019 03:52 11,6 C 10,6 C 10,6 C 87 % 1016,2 hPa 0,0 l/m 0 min 0 min 0 W/m 0,0 km/h (0 Bft) 97,87 %
26.05.2019 03:54 11,6 C 10,6 C 10,6 C 87 % 1016,2 hPa 0,0 l/m 0 min 0 min 0 W/m 3,2 km/h (1 Bft) 97,87 %
26.05.2019 03:56 11,6 C 10,6 C 10,6 C 87 % 1016,2 hPa 0,0 l/m 0 min 0 min 0 W/m 3,2 km/h (1 Bft) 97,87 %
26.05.2019 03:58 11,6 C 10,6 C 10,6 C 88 % 1016,2 hPa 0,0 l/m 0 min 0 min 0 W/m 3,2 km/h (1 Bft) 97,87 %
26.05.2019 04:00 11,6 C 10,6 C 10,6 C 88 % 1016,2 hPa 0,0 l/m 0 min 0 min 0 W/m 3,2 km/h (1 Bft) 97,83 %
26.05.2019 04:02 11,6 C 10,6 C 10,6 C 88 % 1016,2 hPa 0,0 l/m 0 min 0 min 0 W/m 0,0 km/h (0 Bft) 100,00 %
26.05.2019 04:04 11,6 C 10,6 C 10,6 C 88 % 1016,2 hPa 0,0 l/m 0 min 0 min 0 W/m 3,2 km/h (1 Bft) 95,74 %
26.05.2019 04:06 11,6 C 10,6 C 10,6 C 88 % 1016,2 hPa 0,0 l/m 0 min 0 min 0 W/m 3,2 km/h (1 Bft) 97,87 %
26.05.2019 04:08 11,5 C 10,6 C 10,6 C 88 % 1016,3 hPa 0,0 l/m 0 min 0 min 0 W/m 0,0 km/h (0 Bft) 95,74 %
26.05.2019 04:10 11,5 C 10,0 C 10,6 C 88 % 1016,1 hPa 0,0 l/m 0 min 0 min 0 W/m 3,2 km/h (1 Bft) 100,00 %
26.05.2019 04:12 11,5 C 10,6 C 10,6 C 88 % 1016,2 hPa 0,0 l/m 0 min 0 min 0 W/m 3,2 km/h (1 Bft) 97,87 %
26.05.2019 04:14 11,5 C 10,6 C 10,6 C 88 % 1016,1 hPa 0,0 l/m 0 min 0 min 0 W/m 3,2 km/h (1 Bft) 100,00 %
26.05.2019 04:16 11,5 C 10,0 C 10,0 C 88 % 1016,1 hPa 0,0 l/m 0 min 0 min 0 W/m 3,2 km/h (1 Bft) 97,87 %
26.05.2019 04:18 11,4 C 10,0 C 10,0 C 88 % 1016,2 hPa 0,0 l/m 0 min 0 min 0 W/m 3,2 km/h (1 Bft) 93,62 %
26.05.2019 04:20 11,4 C 10,0 C 10,0 C 88 % 1016,2 hPa 0,0 l/m 0 min 0 min 0 W/m 6,4 km/h (2 Bft) 97,87 %
26.05.2019 04:22 11,4 C 10,0 C 10,0 C 88 % 1016,1 hPa 0,0 l/m 0 min 0 min 0 W/m 6,4 km/h (2 Bft) 95,74 %
26.05.2019 04:24 11,4 C 10,0 C 10,0 C 88 % 1016,1 hPa 0,0 l/m 0 min 0 min 0 W/m 3,2 km/h (1 Bft) 95,65 %
26.05.2019 04:26 11,4 C 10,0 C 10,0 C 88 % 1016,1 hPa 0,0 l/m 0 min 0 min 0 W/m 3,2 km/h (1 Bft) 97,87 %
26.05.2019 04:28 11,3 C 10,0 C 10,0 C 88 % 1016,1 hPa 0,0 l/m 0 min 0 min 0 W/m 0,0 km/h (0 Bft) 97,87 %
26.05.2019 04:30 11,3 C 10,0 C 10,0 C 88 % 1016,2 hPa 0,0 l/m 0 min 0 min 0 W/m 3,2 km/h (1 Bft) 97,87 %
26.05.2019 04:32 11,3 C 10,0 C 10,0 C 88 % 1016,1 hPa 0,0 l/m 0 min 0 min 0 W/m 3,2 km/h (1 Bft) 95,74 %
26.05.2019 04:34 11,3 C 10,0 C 10,0 C 89 % 1016,1 hPa 0,0 l/m 0 min 0 min 0 W/m 0,0 km/h (0 Bft) 97,83 %
26.05.2019 04:36 11,3 C 10,0 C 10,0 C 89 % 1016,0 hPa 0,0 l/m 0 min 0 min 0 W/m 3,2 km/h (1 Bft) 97,87 %
26.05.2019 04:38 11,3 C 10,0 C 10,0 C 89 % 1016,0 hPa 0,0 l/m 0 min 0 min 0 W/m 3,2 km/h (1 Bft) 97,87 %
26.05.2019 04:40 11,3 C 10,0 C 10,0 C 89 % 1016,0 hPa 0,0 l/m 0 min 0 min 0 W/m 3,2 km/h (1 Bft) 97,87 %
26.05.2019 04:42 11,3 C 10,0 C 10,0 C 89 % 1015,9 hPa 0,0 l/m 0 min 0 min 0 W/m 0,0 km/h (0 Bft) 95,74 %
26.05.2019 04:44 11,2 C 10,0 C 10,0 C 89 % 1016,0 hPa 0,0 l/m 0 min 0 min 0 W/m 3,2 km/h (1 Bft) 97,87 %
26.05.2019 04:46 11,2 C 10,0 C 10,0 C 89 % 1015,9 hPa 0,0 l/m 0 min 0 min 0 W/m 6,4 km/h (2 Bft) 97,83 %
26.05.2019 04:48 11,2 C 10,0 C 10,0 C 89 % 1015,9 hPa 0,0 l/m 0 min 0 min 0 W/m 3,2 km/h (1 Bft) 97,87 %
26.05.2019 04:50 11,2 C 10,0 C 10,0 C 89 % 1015,9 hPa 0,0 l/m 0 min 0 min 0 W/m 6,4 km/h (2 Bft) 97,87 %
26.05.2019 04:52 11,2 C 10,0 C 10,0 C 89 % 1016,0 hPa 0,0 l/m 0 min 0 min 0 W/m 3,2 km/h (1 Bft) 97,87 %
26.05.2019 04:54 11,2 C 10,0 C 10,0 C 89 % 1016,0 hPa 0,0 l/m 0 min 0 min 0 W/m 0,0 km/h (0 Bft) 97,87 %
26.05.2019 04:56 11,2 C 10,0 C 10,0 C 89 % 1016,0 hPa 0,0 l/m 0 min 0 min 0 W/m 0,0 km/h (0 Bft) 95,74 %
26.05.2019 04:58 11,2 C 10,0 C 10,0 C 89 % 1015,9 hPa 0,0 l/m 0 min 0 min 0 W/m 3,2 km/h (1 Bft) 93,48 %
26.05.2019 05:00 11,2 C 10,0 C 10,0 C 90 % 1015,9 hPa 0,0 l/m 0 min 0 min 0 W/m 3,2 km/h (1 Bft) 97,87 %
26.05.2019 05:02 11,2 C 10,0 C 10,0 C 90 % 1016,0 hPa 0,0 l/m 0 min 0 min 0 W/m 3,2 km/h (1 Bft) 95,74 %
26.05.2019 05:04 11,1 C 10,0 C 10,0 C 90 % 1015,9 hPa 0,0 l/m 0 min 0 min 0 W/m 3,2 km/h (1 Bft) 97,87 %
26.05.2019 05:05 11,1 C 10,0 C 10,0 C 90 % 1015,9 hPa 0,0 l/m 0 min 0 min 0 W/m 3,2 km/h (1 Bft) 99,12 %
26.05.2019 05:10 11,1 C 10,0 C 10,0 C 90 % 1015,8 hPa 0,0 l/m 0 min 0 min 0 W/m 3,2 km/h (1 Bft) 100,00 %
26.05.2019 05:12 11,1 C 10,0 C 10,0 C 90 % 1015,8 hPa 0,0 l/m 0 min 0 min 0 W/m 3,2 km/h (1 Bft) 100,00 %
26.05.2019 05:14 11,1 C 10,0 C 10,0 C 90 % 1015,8 hPa 0,0 l/m 0 min 0 min 0 W/m 6,4 km/h (2 Bft) 100,00 %
26.05.2019 05:19 11,1 C 10,0 C 10,0 C 91 % 1015,9 hPa 0,0 l/m 0 min 0 min 0 W/m 3,2 km/h (1 Bft) 97,06 %
26.05.2019 05:20 11,1 C 10,0 C 10,0 C 91 % 1015,9 hPa 0,0 l/m 0 min 0 min 0 W/m 0,0 km/h (0 Bft) 95,83 %
26.05.2019 05:22 11,1 C 10,0 C 10,0 C 91 % 1015,8 hPa 0,0 l/m 0 min 0 min 0 W/m 3,2 km/h (1 Bft) 93,48 %
26.05.2019 05:27 11,1 C 10,0 C 10,0 C 91 % 1015,8 hPa 0,0 l/m 0 min 0 min 0 W/m 3,2 km/h (1 Bft) 100,00 %
26.05.2019 05:28 11,1 C 10,0 C 10,0 C 91 % 1015,8 hPa 0,0 l/m 0 min 0 min 0 W/m 6,4 km/h (2 Bft) 95,65 %
26.05.2019 05:30 11,1 C 10,0 C 10,0 C 91 % 1015,7 hPa 0,0 l/m 0 min 0 min 0 W/m 3,2 km/h (1 Bft) 95,74 %
26.05.2019 05:32 11,1 C 10,0 C 10,0 C 91 % 1015,7 hPa 0,0 l/m 0 min 0 min 0 W/m 6,4 km/h (2 Bft) 97,87 %
26.05.2019 05:34 11,1 C 10,0 C 10,0 C 91 % 1015,8 hPa 0,0 l/m 0 min 0 min 0 W/m 3,2 km/h (1 Bft) 97,83 %
26.05.2019 05:36 11,1 C 10,0 C 10,0 C 91 % 1015,9 hPa 0,0 l/m 0 min 0 min 0 W/m 3,2 km/h (1 Bft) 95,74 %
26.05.2019 05:38 11,1 C 10,0 C 10,0 C 91 % 1015,9 hPa 0,0 l/m 0 min 0 min 5 W/m 3,2 km/h (1 Bft) 95,74 %
26.05.2019 05:40 11,1 C 10,0 C 10,0 C 91 % 1015,8 hPa 0,0 l/m 0 min 0 min 5 W/m 3,2 km/h (1 Bft) 97,87 %
26.05.2019 05:42 11,1 C 10,0 C 10,0 C 91 % 1015,8 hPa 0,0 l/m 0 min 0 min 7 W/m 3,2 km/h (1 Bft) 97,87 %
26.05.2019 05:44 11,0 C 10,0 C 10,0 C 91 % 1015,8 hPa 0,0 l/m 0 min 0 min 7 W/m 0,0 km/h (0 Bft) 95,74 %
26.05.2019 05:46 11,0 C 10,6 C 10,0 C 91 % 1015,9 hPa 0,0 l/m 0 min 0 min 9 W/m 6,4 km/h (2 Bft) 95,65 %
26.05.2019 05:48 11,0 C 10,6 C 10,0 C 91 % 1015,9 hPa 0,0 l/m 0 min 0 min 10 W/m 3,2 km/h (1 Bft) 97,87 %
26.05.2019 05:50 11,0 C 10,6 C 10,0 C 91 % 1015,8 hPa 0,0 l/m 0 min 0 min 11 W/m 3,2 km/h (1 Bft) 95,74 %
26.05.2019 05:52 11,1 C 10,6 C 10,0 C 91 % 1015,9 hPa 0,0 l/m 0 min 0 min 11 W/m 3,2 km/h (1 Bft) 97,87 %
26.05.2019 05:54 11,1 C 10,6 C 10,0 C 92 % 1015,9 hPa 0,0 l/m 0 min 0 min 12 W/m 3,2 km/h (1 Bft) 97,87 %
26.05.2019 05:56 11,1 C 10,6 C 10,0 C 92 % 1015,9 hPa 0,0 l/m 0 min 0 min 14 W/m 3,2 km/h (1 Bft) 97,87 %
26.05.2019 05:58 11,0 C 10,6 C 10,0 C 92 % 1015,9 hPa 0,0 l/m 0 min 0 min 15 W/m 3,2 km/h (1 Bft) 95,65 %
26.05.2019 06:00 11,0 C 10,6 C 10,0 C 92 % 1015,9 hPa 0,0 l/m 0 min 0 min 17 W/m 6,4 km/h (2 Bft) 97,87 %
26.05.2019 06:02 11,0 C 10,6 C 10,0 C 92 % 1015,9 hPa 0,0 l/m 0 min 0 min 18 W/m 0,0 km/h (0 Bft) 97,87 %
26.05.2019 06:04 11,0 C 10,6 C 10,0 C 92 % 1015,8 hPa 0,0 l/m 0 min 0 min 19 W/m 6,4 km/h (2 Bft) 100,00 %
26.05.2019 06:08 11,0 C 10,6 C 10,0 C 92 % 1015,8 hPa 0,0 l/m 0 min 0 min 21 W/m 6,4 km/h (2 Bft) 98,94 %
26.05.2019 06:10 11,0 C 10,6 C 10,0 C 92 % 1015,7 hPa 0,0 l/m 0 min 0 min 23 W/m 6,4 km/h (2 Bft) 100,00 %
26.05.2019 06:12 11,1 C 10,6 C 10,0 C 92 % 1015,7 hPa 0,0 l/m 0 min 0 min 25 W/m 6,4 km/h (2 Bft) 100,00 %
26.05.2019 06:14 11,1 C 10,6 C 10,6 C 92 % 1015,7 hPa 0,0 l/m 0 min 0 min 25 W/m 3,2 km/h (1 Bft) 100,00 %
26.05.2019 06:16 11,1 C 10,6 C 10,6 C 92 % 1015,7 hPa 0,0 l/m 0 min 0 min 26 W/m 6,4 km/h (2 Bft) 100,00 %
26.05.2019 06:18 11,1 C 10,6 C 10,6 C 92 % 1015,8 hPa 0,0 l/m 0 min 0 min 26 W/m 9,7 km/h (2 Bft) 100,00 %
26.05.2019 06:20 11,1 C 11,1 C 10,6 C 92 % 1015,7 hPa 0,0 l/m 0 min 0 min 26 W/m 9,7 km/h (2 Bft) 100,00 %
26.05.2019 06:22 11,1 C 11,1 C 10,6 C 92 % 1015,7 hPa 0,0 l/m 0 min 0 min 27 W/m 16,1 km/h (3 Bft) 100,00 %
26.05.2019 06:24 11,1 C 11,1 C 10,6 C 93 % 1015,7 hPa 0,0 l/m 0 min 0 min 29 W/m 6,4 km/h (2 Bft) 100,00 %
26.05.2019 06:26 11,1 C 11,1 C 10,6 C 93 % 1015,6 hPa 0,0 l/m 0 min 0 min 30 W/m 9,7 km/h (2 Bft) 100,00 %
26.05.2019 06:28 11,2 C 11,1 C 10,6 C 93 % 1015,6 hPa 0,0 l/m 0 min 0 min 32 W/m 9,7 km/h (2 Bft) 100,00 %
26.05.2019 06:30 11,2 C 11,1 C 10,6 C 93 % 1015,6 hPa 0,0 l/m 0 min 0 min 34 W/m 6,4 km/h (2 Bft) 100,00 %
26.05.2019 06:32 11,2 C 11,1 C 10,6 C 93 % 1015,6 hPa 0,0 l/m 0 min 0 min 36 W/m 9,7 km/h (2 Bft) 100,00 %
26.05.2019 06:34 11,2 C 11,1 C 10,6 C 93 % 1015,6 hPa 0,0 l/m 0 min 0 min 39 W/m 16,1 km/h (3 Bft) 100,00 %
26.05.2019 06:36 11,2 C 11,1 C 10,6 C 93 % 1015,6 hPa 0,0 l/m 0 min 0 min 40 W/m 12,9 km/h (3 Bft) 100,00 %
26.05.2019 06:38 11,2 C 11,1 C 10,6 C 93 % 1015,6 hPa 0,0 l/m 0 min 0 min 41 W/m 9,7 km/h (2 Bft) 97,87 %
26.05.2019 06:40 11,3 C 11,1 C 10,6 C 93 % 1015,6 hPa 0,0 l/m 0 min 0 min 43 W/m 9,7 km/h (2 Bft) 100,00 %
26.05.2019 06:42 11,2 C 11,1 C 10,6 C 93 % 1015,6 hPa 0,0 l/m 0 min 0 min 45 W/m 9,7 km/h (2 Bft) 97,87 %
26.05.2019 06:44 11,3 C 11,1 C 10,6 C 93 % 1015,6 hPa 0,0 l/m 0 min 0 min 47 W/m 9,7 km/h (2 Bft) 100,00 %
26.05.2019 06:46 11,3 C 11,1 C 10,6 C 93 % 1015,7 hPa 0,0 l/m 0 min 0 min 51 W/m 9,7 km/h (2 Bft) 100,00 %
26.05.2019 06:48 11,3 C 11,1 C 10,6 C 93 % 1015,6 hPa 0,0 l/m 0 min 0 min 54 W/m 9,7 km/h (2 Bft) 100,00 %
26.05.2019 06:50 11,3 C 11,1 C 10,6 C 93 % 1015,6 hPa 0,0 l/m 0 min 0 min 54 W/m 9,7 km/h (2 Bft) 100,00 %
26.05.2019 06:52 11,3 C 11,7 C 11,1 C 93 % 1015,6 hPa 0,0 l/m 0 min 0 min 54 W/m 9,7 km/h (2 Bft) 100,00 %
26.05.2019 06:54 11,3 C 11,7 C 11,1 C 93 % 1015,6 hPa 0,0 l/m 0 min 0 min 56 W/m 6,4 km/h (2 Bft) 100,00 %
26.05.2019 06:56 11,4 C 11,7 C 11,1 C 93 % 1015,7 hPa 0,0 l/m 0 min 0 min 56 W/m 12,9 km/h (3 Bft) 100,00 %
26.05.2019 06:58 11,4 C 11,7 C 11,1 C 93 % 1015,6 hPa 0,0 l/m 0 min 0 min 59 W/m 12,9 km/h (3 Bft) 100,00 %
26.05.2019 07:00 11,4 C 11,7 C 11,1 C 93 % 1015,6 hPa 0,0 l/m 0 min 0 min 61 W/m 6,4 km/h (2 Bft) 97,87 %
26.05.2019 07:02 11,4 C 11,7 C 11,1 C 93 % 1015,6 hPa 0,0 l/m 0 min 0 min 63 W/m 9,7 km/h (2 Bft) 93,62 %
26.05.2019 07:04 11,4 C 11,7 C 11,1 C 93 % 1015,6 hPa 0,0 l/m 0 min 0 min 66 W/m 12,9 km/h (3 Bft) 97,87 %
26.05.2019 07:06 11,5 C 11,7 C 11,1 C 93 % 1015,5 hPa 0,0 l/m 0 min 0 min 68 W/m 12,9 km/h (3 Bft) 97,87 %
26.05.2019 07:08 11,5 C 12,2 C 11,1 C 93 % 1015,5 hPa 0,0 l/m 0 min 0 min 70 W/m 9,7 km/h (2 Bft) 97,83 %
26.05.2019 07:10 11,5 C 12,2 C 11,7 C 93 % 1015,5 hPa 0,0 l/m 0 min 0 min 74 W/m 9,7 km/h (2 Bft) 95,74 %
26.05.2019 07:12 11,6 C 12,2 C 11,7 C 93 % 1015,5 hPa 0,0 l/m 0 min 0 min 77 W/m 6,4 km/h (2 Bft) 95,74 %
26.05.2019 07:14 11,6 C 12,2 C 11,7 C 93 % 1015,5 hPa 0,0 l/m 0 min 0 min 81 W/m 6,4 km/h (2 Bft) 95,74 %
26.05.2019 07:16 11,6 C 12,2 C 11,7 C 93 % 1015,5 hPa 0,0 l/m 0 min 0 min 84 W/m 6,4 km/h (2 Bft) 93,62 %
26.05.2019 07:18 11,6 C 12,2 C 11,7 C 93 % 1015,5 hPa 0,0 l/m 0 min 0 min 87 W/m 9,7 km/h (2 Bft) 95,74 %
26.05.2019 07:20 11,7 C 12,2 C 11,7 C 93 % 1015,4 hPa 0,0 l/m 0 min 0 min 91 W/m 9,7 km/h (2 Bft) 95,65 %
26.05.2019 07:22 11,7 C 12,8 C 11,7 C 93 % 1015,3 hPa 0,0 l/m 0 min 0 min 95 W/m 9,7 km/h (2 Bft) 93,62 %
26.05.2019 07:24 11,7 C 12,8 C 12,2 C 93 % 1015,3 hPa 0,0 l/m 0 min 0 min 97 W/m 9,7 km/h (2 Bft) 93,62 %
26.05.2019 07:26 11,7 C 12,8 C 12,2 C 92 % 1015,3 hPa 0,0 l/m 0 min 0 min 99 W/m 6,4 km/h (2 Bft) 91,49 %
26.05.2019 07:28 11,8 C 12,8 C 12,2 C 92 % 1015,3 hPa 0,0 l/m 0 min 0 min 101 W/m 12,9 km/h (3 Bft) 95,74 %
26.05.2019 07:30 11,8 C 12,8 C 12,2 C 92 % 1015,4 hPa 0,0 l/m 0 min 0 min 102 W/m 9,7 km/h (2 Bft) 93,62 %
26.05.2019 07:32 11,8 C 12,8 C 12,2 C 92 % 1015,3 hPa 0,0 l/m 0 min 0 min 102 W/m 6,4 km/h (2 Bft) 95,65 %
26.05.2019 07:34 11,9 C 12,8 C 12,2 C 92 % 1015,3 hPa 0,0 l/m 0 min 0 min 102 W/m 19,3 km/h (3 Bft) 93,62 %
26.05.2019 07:36 11,9 C 12,8 C 12,2 C 92 % 1015,4 hPa 0,0 l/m 0 min 0 min 100 W/m 12,9 km/h (3 Bft) 95,74 %
26.05.2019 07:38 12,0 C 13,3 C 12,2 C 92 % 1015,4 hPa 0,0 l/m 0 min 0 min 99 W/m 6,4 km/h (2 Bft) 95,74 %
26.05.2019 07:40 12,0 C 13,3 C 12,2 C 92 % 1015,4 hPa 0,0 l/m 0 min 0 min 98 W/m 9,7 km/h (2 Bft) 93,62 %
26.05.2019 07:42 12,1 C 13,3 C 12,2 C 92 % 1015,4 hPa 0,0 l/m 0 min 0 min 97 W/m 9,7 km/h (2 Bft) 95,74 %
26.05.2019 07:44 12,1 C 13,3 C 12,2 C 91 % 1015,4 hPa 0,0 l/m 0 min 0 min 96 W/m 6,4 km/h (2 Bft) 93,48 %
26.05.2019 07:46 12,2 C 13,3 C 12,2 C 91 % 1015,3 hPa 0,0 l/m 0 min 0 min 94 W/m 9,7 km/h (2 Bft) 93,62 %
26.05.2019 07:48 12,2 C 13,3 C 12,2 C 91 % 1015,4 hPa 0,0 l/m 0 min 0 min 93 W/m 9,7 km/h (2 Bft) 93,62 %
26.05.2019 07:50 12,3 C 13,3 C 12,2 C 91 % 1015,3 hPa 0,0 l/m 0 min 0 min 92 W/m 6,4 km/h (2 Bft) 95,74 %
26.05.2019 07:52 12,3 C 13,3 C 12,2 C 91 % 1015,3 hPa 0,0 l/m 0 min 0 min 92 W/m 9,7 km/h (2 Bft) 97,87 %
26.05.2019 07:54 12,3 C 13,3 C 12,2 C 91 % 1015,3 hPa 0,0 l/m 0 min 0 min 93 W/m 6,4 km/h (2 Bft) 97,87 %
26.05.2019 07:56 12,4 C 13,3 C 12,2 C 90 % 1015,3 hPa 0,0 l/m 0 min 0 min 96 W/m 12,9 km/h (3 Bft) 95,65 %
26.05.2019 07:58 12,4 C 13,3 C 12,8 C 90 % 1015,3 hPa 0,0 l/m 0 min 0 min 95 W/m 6,4 km/h (2 Bft) 97,87 %
26.05.2019 08:00 12,5 C 13,3 C 12,8 C 90 % 1015,3 hPa 0,0 l/m 0 min 0 min 97 W/m 9,7 km/h (2 Bft) 100,00 %
26.05.2019 08:02 12,5 C 13,9 C 12,8 C 90 % 1015,3 hPa 0,0 l/m 0 min 0 min 98 W/m 6,4 km/h (2 Bft) 95,74 %
26.05.2019 08:04 12,6 C 13,9 C 12,8 C 90 % 1015,3 hPa 0,0 l/m 0 min 0 min 102 W/m 9,7 km/h (2 Bft) 95,74 %
26.05.2019 08:06 12,6 C 14,4 C 12,8 C 89 % 1015,3 hPa 0,0 l/m 0 min 0 min 106 W/m 6,4 km/h (2 Bft) 95,74 %
26.05.2019 08:08 12,7 C 15,0 C 12,8 C 89 % 1015,3 hPa 0,0 l/m 0 min 0 min 111 W/m 3,2 km/h (1 Bft) 95,74 %
26.05.2019 08:10 12,7 C 15,6 C 12,8 C 89 % 1015,4 hPa 0,0 l/m 0 min 0 min 117 W/m 6,4 km/h (2 Bft) 97,87 %
26.05.2019 08:12 12,8 C 16,1 C 13,3 C 89 % 1015,4 hPa 0,0 l/m 0 min 0 min 121 W/m 9,7 km/h (2 Bft) 97,83 %
26.05.2019 08:14 12,9 C 17,2 C 13,3 C 89 % 1015,3 hPa 0,0 l/m 0 min 0 min 127 W/m 3,2 km/h (1 Bft) 93,62 %
26.05.2019 08:16 13,0 C 17,2 C 13,3 C 89 % 1015,2 hPa 0,0 l/m 0 min 0 min 128 W/m 9,7 km/h (2 Bft) 93,62 %
26.05.2019 08:18 13,1 C 17,2 C 13,3 C 89 % 1015,3 hPa 0,0 l/m 0 min 0 min 129 W/m 9,7 km/h (2 Bft) 97,87 %
26.05.2019 08:20 13,2 C 16,7 C 13,9 C 89 % 1015,2 hPa 0,0 l/m 0 min 0 min 132 W/m 12,9 km/h (3 Bft) 97,87 %
26.05.2019 08:22 13,3 C 17,2 C 13,9 C 88 % 1015,2 hPa 0,0 l/m 0 min 0 min 133 W/m 6,4 km/h (2 Bft) 97,87 %
26.05.2019 08:24 13,4 C 16,7 C 13,9 C 88 % 1015,2 hPa 0,0 l/m 0 min 0 min 136 W/m 12,9 km/h (3 Bft) 97,83 %
26.05.2019 08:26 13,5 C 17,8 C 14,4 C 88 % 1015,2 hPa 0,0 l/m 0 min 0 min 141 W/m 9,7 km/h (2 Bft) 97,87 %
26.05.2019 08:28 13,7 C 17,2 C 14,4 C 87 % 1015,2 hPa 0,0 l/m 0 min 0 min 142 W/m 12,9 km/h (3 Bft) 97,87 %
26.05.2019 08:30 13,8 C 17,2 C 14,4 C 87 % 1015,2 hPa 0,0 l/m 0 min 0 min 143 W/m 12,9 km/h (3 Bft) 97,87 %
26.05.2019 08:32 13,9 C 16,7 C 14,4 C 86 % 1015,2 hPa 0,0 l/m 0 min 0 min 146 W/m 12,9 km/h (3 Bft) 97,87 %
26.05.2019 08:34 14,0 C 16,7 C 15,0 C 86 % 1015,2 hPa 0,0 l/m 0 min 0 min 151 W/m 12,9 km/h (3 Bft) 97,87 %
26.05.2019 08:36 14,2 C 17,2 C 16,1 C 85 % 1015,2 hPa 0,0 l/m 0 min 0 min 153 W/m 16,1 km/h (3 Bft) 97,83 %
26.05.2019 08:38 14,2 C 16,7 C 16,1 C 85 % 1015,3 hPa 0,0 l/m 0 min 0 min 154 W/m 16,1 km/h (3 Bft) 97,87 %
26.05.2019 08:40 14,3 C 17,2 C 16,1 C 84 % 1015,2 hPa 0,0 l/m 0 min 0 min 157 W/m 6,4 km/h (2 Bft) 97,87 %
26.05.2019 08:42 14,4 C 17,2 C 16,7 C 84 % 1015,2 hPa 0,0 l/m 0 min 0 min 153 W/m 6,4 km/h (2 Bft) 97,87 %
26.05.2019 08:44 14,6 C 17,2 C 16,1 C 84 % 1015,3 hPa 0,0 l/m 0 min 0 min 151 W/m 16,1 km/h (3 Bft) 95,74 %
26.05.2019 08:46 14,6 C 16,7 C 16,1 C 83 % 1015,2 hPa 0,0 l/m 0 min 0 min 143 W/m 16,1 km/h (3 Bft) 95,74 %
26.05.2019 08:48 14,7 C 16,1 C 15,6 C 83 % 1015,3 hPa 0,0 l/m 0 min 0 min 138 W/m 12,9 km/h (3 Bft) 97,83 %
26.05.2019 08:50 14,8 C 15,6 C 15,0 C 82 % 1015,3 hPa 0,0 l/m 0 min 0 min 142 W/m 16,1 km/h (3 Bft) 97,87 %
26.05.2019 08:52 14,8 C 15,6 C 15,0 C 82 % 1015,4 hPa 0,0 l/m 0 min 0 min 147 W/m 9,7 km/h (2 Bft) 95,74 %
26.05.2019 08:54 14,8 C 15,6 C 15,0 C 82 % 1015,3 hPa 0,0 l/m 0 min 0 min 157 W/m 19,3 km/h (3 Bft) 97,87 %
26.05.2019 08:56 14,9 C 16,1 C 15,0 C 82 % 1015,5 hPa 0,0 l/m 0 min 0 min 186 W/m 19,3 km/h (3 Bft) 95,74 %
26.05.2019 08:58 14,9 C 16,7 C 16,1 C 82 % 1015,4 hPa 0,0 l/m 2 min 0 min 296 W/m 9,7 km/h (2 Bft) 97,87 %
26.05.2019 09:00 15,0 C 18,3 C 17,2 C 82 % 1015,4 hPa 0,0 l/m 2 min 0 min 345 W/m 9,7 km/h (2 Bft) 97,83 %
26.05.2019 09:02 15,1 C 18,9 C 18,3 C 82 % 1015,4 hPa 0,0 l/m 2 min 0 min 385 W/m 6,4 km/h (2 Bft) 97,87 %
26.05.2019 09:04 15,2 C 19,4 C 18,9 C 82 % 1015,3 hPa 0,0 l/m 2 min 0 min 420 W/m 12,9 km/h (3 Bft) 97,87 %
26.05.2019 09:06 15,3 C 20,6 C 20,6 C 82 % 1015,3 hPa 0,0 l/m 2 min 0 min 466 W/m 12,9 km/h (3 Bft) 100,00 %
26.05.2019 09:08 15,4 C 20,0 C 20,0 C 82 % 1015,3 hPa 0,0 l/m 2 min 0 min 414 W/m 16,1 km/h (3 Bft) 100,00 %
26.05.2019 09:10 15,4 C 19,4 C 19,4 C 81 % 1015,3 hPa 0,0 l/m 2 min 0 min 275 W/m 16,1 km/h (3 Bft) 100,00 %
26.05.2019 09:12 15,6 C 19,4 C 19,4 C 81 % 1015,3 hPa 0,0 l/m 2 min 0 min 344 W/m 12,9 km/h (3 Bft) 100,00 %
26.05.2019 09:14 15,7 C 18,9 C 18,9 C 80 % 1015,4 hPa 0,0 l/m 2 min 0 min 362 W/m 12,9 km/h (3 Bft) 100,00 %
26.05.2019 09:16 15,8 C 18,9 C 18,3 C 80 % 1015,4 hPa 0,0 l/m 2 min 0 min 316 W/m 12,9 km/h (3 Bft) 100,00 %
26.05.2019 09:18 15,9 C 19,4 C 18,9 C 80 % 1015,4 hPa 0,0 l/m 2 min 0 min 389 W/m 12,9 km/h (3 Bft) 100,00 %
26.05.2019 09:20 16,1 C 20,6 C 20,0 C 80 % 1015,3 hPa 0,0 l/m 2 min 0 min 421 W/m 16,1 km/h (3 Bft) 100,00 %
26.05.2019 09:22 16,2 C 20,6 C 20,6 C 79 % 1015,4 hPa 0,0 l/m 2 min 0 min 461 W/m 12,9 km/h (3 Bft) 100,00 %
26.05.2019 09:24 16,3 C 21,1 C 21,1 C 79 % 1015,3 hPa 0,0 l/m 2 min 0 min 489 W/m 19,3 km/h (3 Bft) 100,00 %
26.05.2019 09:26 16,4 C 21,1 C 21,1 C 79 % 1015,3 hPa 0,0 l/m 2 min 0 min 530 W/m 12,9 km/h (3 Bft) 100,00 %
26.05.2019 09:28 16,6 C 21,1 C 21,1 C 78 % 1015,4 hPa 0,0 l/m 2 min 0 min 534 W/m 16,1 km/h (3 Bft) 97,87 %
26.05.2019 09:30 16,7 C 20,6 C 20,6 C 77 % 1015,3 hPa 0,0 l/m 2 min 0 min 468 W/m 16,1 km/h (3 Bft) 100,00 %
26.05.2019 09:32 16,8 C 18,9 C 18,9 C 76 % 1015,3 hPa 0,0 l/m 2 min 0 min 338 W/m 19,3 km/h (3 Bft) 97,87 %
26.05.2019 09:34 16,8 C 18,3 C 18,3 C 76 % 1015,3 hPa 0,0 l/m 0 min 0 min 263 W/m 16,1 km/h (3 Bft) 93,48 %
26.05.2019 09:36 16,9 C 19,4 C 18,9 C 76 % 1015,2 hPa 0,0 l/m 2 min 0 min 295 W/m 12,9 km/h (3 Bft) 97,87 %
26.05.2019 09:38 16,9 C 20,6 C 20,0 C 76 % 1015,2 hPa 0,0 l/m 2 min 0 min 422 W/m 9,7 km/h (2 Bft) 95,74 %
26.05.2019 09:40 17,0 C 22,2 C 21,7 C 76 % 1015,2 hPa 0,0 l/m 2 min 0 min 466 W/m 9,7 km/h (2 Bft) 97,87 %
26.05.2019 09:42 17,1 C 21,7 C 22,2 C 76 % 1015,2 hPa 0,0 l/m 2 min 0 min 575 W/m 12,9 km/h (3 Bft) 97,87 %
26.05.2019 09:44 17,2 C 22,2 C 22,2 C 76 % 1015,2 hPa 0,0 l/m 2 min 0 min 606 W/m 12,9 km/h (3 Bft) 97,87 %
26.05.2019 09:46 17,3 C 22,8 C 22,2 C 75 % 1015,3 hPa 0,0 l/m 2 min 0 min 623 W/m 16,1 km/h (3 Bft) 97,83 %
26.05.2019 09:48 17,4 C 22,8 C 22,8 C 76 % 1015,3 hPa 0,0 l/m 2 min 0 min 647 W/m 12,9 km/h (3 Bft) 97,87 %
26.05.2019 09:50 17,6 C 22,2 C 22,8 C 75 % 1015,4 hPa 0,0 l/m 2 min 0 min 635 W/m 12,9 km/h (3 Bft) 97,87 %
26.05.2019 09:52 17,7 C 24,4 C 23,9 C 75 % 1015,2 hPa 0,0 l/m 2 min 0 min 628 W/m 6,4 km/h (2 Bft) 95,74 %
26.05.2019 09:54 17,9 C 23,3 C 23,9 C 75 % 1015,3 hPa 0,0 l/m 2 min 0 min 587 W/m 12,9 km/h (3 Bft) 97,87 %
26.05.2019 09:56 18,0 C 22,8 C 22,8 C 74 % 1015,3 hPa 0,0 l/m 2 min 0 min 523 W/m 12,9 km/h (3 Bft) 97,87 %
26.05.2019 09:58 18,1 C 23,3 C 23,3 C 74 % 1015,3 hPa 0,0 l/m 2 min 0 min 546 W/m 12,9 km/h (3 Bft) 95,65 %
26.05.2019 10:00 18,2 C 21,7 C 21,7 C 73 % 1015,3 hPa 0,0 l/m 2 min 0 min 617 W/m 25,7 km/h (4 Bft) 95,74 %
26.05.2019 10:02 18,3 C 20,6 C 20,6 C 72 % 1015,3 hPa 0,0 l/m 2 min 0 min 451 W/m 32,2 km/h (5 Bft) 95,74 %
26.05.2019 10:04 18,3 C 20,6 C 20,0 C 71 % 1015,2 hPa 0,0 l/m 2 min 0 min 398 W/m 22,5 km/h (4 Bft) 94,44 %
26.05.2019 10:06 18,4 C 22,2 C 21,7 C 72 % 1015,0 hPa 0,0 l/m 2 min 0 min 476 W/m 16,1 km/h (3 Bft) 96,55 %
26.05.2019 10:08 18,5 C 21,7 C 21,1 C 72 % 1015,1 hPa 0,0 l/m 2 min 0 min 474 W/m 9,7 km/h (2 Bft) 94,29 %
26.05.2019 10:10 18,6 C 20,6 C 20,0 C 71 % 1015,0 hPa 0,0 l/m 2 min 0 min 397 W/m 19,3 km/h (3 Bft) 94,92 %
26.05.2019 10:12 18,6 C 21,1 C 20,0 C 71 % 1014,9 hPa 0,0 l/m 2 min 0 min 374 W/m 9,7 km/h (2 Bft) 97,87 %
26.05.2019 10:14 18,6 C 20,0 C 19,4 C 71 % 1015,1 hPa 0,0 l/m 2 min 0 min 362 W/m 12,9 km/h (3 Bft) 97,87 %
26.05.2019 10:16 18,6 C 20,0 C 19,4 C 70 % 1015,1 hPa 0,0 l/m 2 min 0 min 342 W/m 16,1 km/h (3 Bft) 95,65 %
26.05.2019 10:18 18,7 C 20,0 C 19,4 C 71 % 1015,1 hPa 0,0 l/m 2 min 0 min 330 W/m 16,1 km/h (3 Bft) 100,00 %
26.05.2019 10:20 18,7 C 19,4 C 18,9 C 71 % 1015,2 hPa 0,0 l/m 0 min 0 min 316 W/m 9,7 km/h (2 Bft) 97,87 %
26.05.2019 10:22 18,7 C 19,4 C 18,9 C 71 % 1015,1 hPa 0,0 l/m 0 min 0 min 289 W/m 9,7 km/h (2 Bft) 96,61 %
26.05.2019 10:24 18,7 C 19,4 C 18,9 C 71 % 1015,1 hPa 0,0 l/m 0 min 0 min 272 W/m 16,1 km/h (3 Bft) 97,87 %
26.05.2019 10:26 18,6 C 18,9 C 18,3 C 70 % 1015,0 hPa 0,0 l/m 0 min 0 min 271 W/m 9,7 km/h (2 Bft) 97,83 %
26.05.2019 10:28 18,7 C 19,4 C 18,9 C 71 % 1015,0 hPa 0,0 l/m 0 min 0 min 280 W/m 16,1 km/h (3 Bft) 97,87 %
26.05.2019 10:30 18,6 C 19,4 C 18,3 C 71 % 1015,0 hPa 0,0 l/m 0 min 0 min 291 W/m 16,1 km/h (3 Bft) 95,74 %
26.05.2019 10:32 18,6 C 18,9 C 18,3 C 70 % 1014,9 hPa 0,0 l/m 0 min 0 min 299 W/m 16,1 km/h (3 Bft) 97,87 %
26.05.2019 10:34 18,6 C 19,4 C 18,3 C 70 % 1015,0 hPa 0,0 l/m 0 min 0 min 300 W/m 16,1 km/h (3 Bft) 97,87 %
26.05.2019 10:36 18,7 C 19,4 C 18,9 C 71 % 1014,9 hPa 0,0 l/m 0 min 0 min 297 W/m 16,1 km/h (3 Bft) 97,87 %
26.05.2019 10:38 18,7 C 19,4 C 18,9 C 72 % 1014,8 hPa 0,0 l/m 0 min 0 min 297 W/m 9,7 km/h (2 Bft) 97,83 %
26.05.2019 10:40 18,7 C 20,0 C 18,9 C 72 % 1014,9 hPa 0,0 l/m 0 min 0 min 301 W/m 6,4 km/h (2 Bft) 97,87 %
26.05.2019 10:42 18,7 C 19,4 C 18,9 C 72 % 1014,8 hPa 0,0 l/m 0 min 0 min 301 W/m 22,5 km/h (4 Bft) 97,87 %
26.05.2019 10:44 18,7 C 19,4 C 18,9 C 71 % 1014,8 hPa 0,0 l/m 0 min 0 min 298 W/m 16,1 km/h (3 Bft) 97,87 %
26.05.2019 10:46 18,7 C 18,9 C 18,3 C 70 % 1014,8 hPa 0,0 l/m 0 min 0 min 294 W/m 19,3 km/h (3 Bft) 91,49 %
26.05.2019 10:48 18,7 C 19,4 C 18,9 C 70 % 1014,8 hPa 0,0 l/m 0 min 0 min 282 W/m 12,9 km/h (3 Bft) 97,87 %
26.05.2019 10:50 18,7 C 19,4 C 18,9 C 71 % 1014,8 hPa 0,0 l/m 0 min 0 min 278 W/m 16,1 km/h (3 Bft) 100,00 %
26.05.2019 10:52 18,8 C 19,4 C 18,9 C 71 % 1014,8 hPa 0,0 l/m 0 min 0 min 270 W/m 19,3 km/h (3 Bft) 97,87 %
26.05.2019 10:54 18,8 C 19,4 C 18,9 C 71 % 1014,7 hPa 0,0 l/m 0 min 0 min 266 W/m 19,3 km/h (3 Bft) 93,62 %
26.05.2019 10:56 18,8 C 18,9 C 18,3 C 70 % 1014,8 hPa 0,0 l/m 0 min 0 min 254 W/m 19,3 km/h (3 Bft) 97,87 %
26.05.2019 10:58 18,8 C 19,4 C 18,3 C 71 % 1014,7 hPa 0,0 l/m 0 min 0 min 246 W/m 12,9 km/h (3 Bft) 93,62 %
26.05.2019 11:00 18,8 C 18,9 C 18,3 C 71 % 1014,6 hPa 0,0 l/m 0 min 0 min 240 W/m 16,1 km/h (3 Bft) 97,87 %
26.05.2019 11:02 18,8 C 18,9 C 18,3 C 70 % 1014,8 hPa 0,0 l/m 0 min 0 min 228 W/m 22,5 km/h (4 Bft) 100,00 %
26.05.2019 11:04 18,8 C 18,9 C 18,3 C 71 % 1014,7 hPa 0,0 l/m 0 min 0 min 216 W/m 19,3 km/h (3 Bft) 100,00 %
26.05.2019 11:06 18,7 C 18,9 C 17,8 C 70 % 1014,6 hPa 0,0 l/m 0 min 0 min 205 W/m 19,3 km/h (3 Bft) 97,87 %
26.05.2019 11:08 18,7 C 18,3 C 17,8 C 70 % 1014,6 hPa 0,0 l/m 0 min 0 min 186 W/m 19,3 km/h (3 Bft) 100,00 %
26.05.2019 11:10 18,7 C 18,9 C 17,8 C 71 % 1014,6 hPa 0,0 l/m 0 min 0 min 166 W/m 9,7 km/h (2 Bft) 100,00 %
26.05.2019 11:12 18,7 C 18,3 C 17,8 C 71 % 1014,7 hPa 0,0 l/m 0 min 0 min 157 W/m 9,7 km/h (2 Bft) 97,87 %
26.05.2019 11:14 18,7 C 18,3 C 17,8 C 71 % 1014,7 hPa 0,0 l/m 0 min 0 min 152 W/m 16,1 km/h (3 Bft) 100,00 %
26.05.2019 11:16 18,7 C 18,3 C 17,8 C 72 % 1014,6 hPa 0,0 l/m 0 min 0 min 146 W/m 6,4 km/h (2 Bft) 100,00 %
26.05.2019 11:18 18,7 C 18,9 C 17,8 C 72 % 1014,7 hPa 0,0 l/m 0 min 0 min 140 W/m 16,1 km/h (3 Bft) 100,00 %
26.05.2019 11:20 18,7 C 18,3 C 17,8 C 72 % 1014,6 hPa 0,0 l/m 0 min 0 min 134 W/m 9,7 km/h (2 Bft) 100,00 %
26.05.2019 11:22 18,7 C 18,3 C 17,8 C 72 % 1014,6 hPa 0,0 l/m 0 min 0 min 130 W/m 6,4 km/h (2 Bft) 100,00 %
26.05.2019 11:24 18,6 C 18,3 C 17,8 C 72 % 1014,6 hPa 0,0 l/m 0 min 0 min 126 W/m 9,7 km/h (2 Bft) 100,00 %
26.05.2019 11:26 18,6 C 18,3 C 17,8 C 72 % 1014,6 hPa 0,0 l/m 0 min 0 min 127 W/m 16,1 km/h (3 Bft) 97,83 %
26.05.2019 11:28 18,6 C 18,3 C 17,8 C 72 % 1014,6 hPa 0,0 l/m 0 min 0 min 133 W/m 9,7 km/h (2 Bft) 100,00 %
26.05.2019 11:30 18,5 C 17,8 C 17,2 C 71 % 1014,7 hPa 0,0 l/m 0 min 0 min 146 W/m 25,7 km/h (4 Bft) 97,87 %
26.05.2019 11:32 18,5 C 17,8 C 17,2 C 71 % 1014,7 hPa 0,0 l/m 0 min 0 min 160 W/m 9,7 km/h (2 Bft) 100,00 %
26.05.2019 11:34 18,4 C 18,3 C 17,8 C 72 % 1014,6 hPa 0,0 l/m 0 min 0 min 164 W/m 9,7 km/h (2 Bft) 100,00 %
26.05.2019 11:36 18,4 C 18,3 C 17,8 C 72 % 1014,6 hPa 0,0 l/m 0 min 0 min 157 W/m 12,9 km/h (3 Bft) 100,00 %
26.05.2019 11:38 18,4 C 18,3 C 17,8 C 72 % 1014,6 hPa 0,0 l/m 0 min 0 min 160 W/m 16,1 km/h (3 Bft) 100,00 %
26.05.2019 11:40 18,4 C 18,3 C 17,8 C 72 % 1014,6 hPa 0,0 l/m 0 min 0 min 172 W/m 22,5 km/h (4 Bft) 100,00 %
26.05.2019 11:42 18,4 C 18,3 C 17,8 C 72 % 1014,5 hPa 0,0 l/m 0 min 0 min 188 W/m 12,9 km/h (3 Bft) 100,00 %
26.05.2019 11:44 18,3 C 18,3 C 17,8 C 72 % 1014,5 hPa 0,0 l/m 0 min 0 min 203 W/m 12,9 km/h (3 Bft) 100,00 %
26.05.2019 11:46 18,3 C 18,9 C 17,8 C 72 % 1014,5 hPa 0,0 l/m 0 min 0 min 217 W/m 9,7 km/h (2 Bft) 98,31 %
26.05.2019 11:48 18,4 C 18,9 C 18,3 C 72 % 1014,4 hPa 0,0 l/m 0 min 0 min 232 W/m 12,9 km/h (3 Bft) 97,14 %
26.05.2019 11:50 18,4 C 18,9 C 18,3 C 73 % 1014,4 hPa 0,0 l/m 0 min 0 min 252 W/m 16,1 km/h (3 Bft) 98,28 %
26.05.2019 11:52 18,4 C 19,4 C 18,3 C 73 % 1014,4 hPa 0,0 l/m 0 min 0 min 264 W/m 6,4 km/h (2 Bft) 100,00 %
26.05.2019 11:54 18,4 C 19,4 C 18,9 C 73 % 1014,4 hPa 0,0 l/m 0 min 0 min 276 W/m 9,7 km/h (2 Bft) 97,87 %
26.05.2019 11:56 18,5 C 19,4 C 18,9 C 73 % 1014,4 hPa 0,0 l/m 0 min 0 min 290 W/m 12,9 km/h (3 Bft) 97,87 %
26.05.2019 11:58 18,5 C 20,0 C 18,9 C 73 % 1014,5 hPa 0,0 l/m 0 min 0 min 305 W/m 16,1 km/h (3 Bft) 95,74 %
26.05.2019 12:00 18,6 C 20,0 C 18,9 C 73 % 1014,3 hPa 0,0 l/m 0 min 0 min 325 W/m 9,7 km/h (2 Bft) 93,62 %
26.05.2019 12:02 18,6 C 20,0 C 19,4 C 73 % 1014,4 hPa 0,0 l/m 0 min 0 min 339 W/m 6,4 km/h (2 Bft) 94,29 %
26.05.2019 12:04 18,7 C 20,0 C 19,4 C 72 % 1014,4 hPa 0,0 l/m 0 min 0 min 348 W/m 16,1 km/h (3 Bft) 98,28 %
26.05.2019 12:08 18,8 C 20,6 C 19,4 C 72 % 1014,4 hPa 0,0 l/m 0 min 0 min 347 W/m 25,7 km/h (4 Bft) 92,55 %
26.05.2019 12:10 18,8 C 20,6 C 19,4 C 72 % 1014,3 hPa 0,0 l/m 0 min 0 min 341 W/m 12,9 km/h (3 Bft) 93,62 %
26.05.2019 12:12 18,9 C 20,6 C 19,4 C 72 % 1014,4 hPa 0,0 l/m 0 min 0 min 336 W/m 12,9 km/h (3 Bft) 95,65 %
26.05.2019 12:14 19,0 C 20,6 C 19,4 C 72 % 1014,4 hPa 0,0 l/m 0 min 0 min 333 W/m 16,1 km/h (3 Bft) 95,74 %
26.05.2019 12:16 19,1 C 20,6 C 19,4 C 71 % 1014,3 hPa 0,0 l/m 0 min 0 min 329 W/m 9,7 km/h (2 Bft) 95,74 %
26.05.2019 12:18 19,1 C 20,6 C 19,4 C 71 % 1014,3 hPa 0,0 l/m 0 min 0 min 325 W/m 12,9 km/h (3 Bft) 95,74 %
26.05.2019 12:20 19,2 C 20,0 C 19,4 C 71 % 1014,3 hPa 0,0 l/m 0 min 0 min 329 W/m 22,5 km/h (4 Bft) 95,74 %
26.05.2019 12:22 19,2 C 20,0 C 19,4 C 70 % 1014,2 hPa 0,0 l/m 0 min 0 min 332 W/m 16,1 km/h (3 Bft) 95,74 %
26.05.2019 12:24 19,3 C 20,6 C 19,4 C 71 % 1014,2 hPa 0,0 l/m 0 min 0 min 338 W/m 16,1 km/h (3 Bft) 94,29 %
26.05.2019 12:26 19,3 C 20,0 C 19,4 C 70 % 1014,2 hPa 0,0 l/m 0 min 0 min 346 W/m 22,5 km/h (4 Bft) 93,10 %
26.05.2019 12:28 19,3 C 20,0 C 19,4 C 70 % 1014,2 hPa 0,0 l/m 0 min 0 min 352 W/m 19,3 km/h (3 Bft) 93,62 %
26.05.2019 12:30 19,4 C 20,6 C 20,0 C 70 % 1014,2 hPa 0,0 l/m 0 min 0 min 352 W/m 12,9 km/h (3 Bft) 95,74 %
26.05.2019 12:32 19,4 C 20,6 C 20,0 C 71 % 1014,2 hPa 0,0 l/m 0 min 0 min 347 W/m 12,9 km/h (3 Bft) 93,62 %
26.05.2019 12:34 19,5 C 20,6 C 20,0 C 70 % 1014,2 hPa 0,0 l/m 0 min 0 min 345 W/m 12,9 km/h (3 Bft) 95,74 %
26.05.2019 12:36 19,5 C 21,1 C 20,0 C 71 % 1014,2 hPa 0,0 l/m 0 min 0 min 345 W/m 12,9 km/h (3 Bft) 95,65 %
26.05.2019 12:38 19,6 C 21,1 C 20,0 C 70 % 1014,3 hPa 0,0 l/m 0 min 0 min 345 W/m 12,9 km/h (3 Bft) 95,74 %
26.05.2019 12:40 19,6 C 21,1 C 20,0 C 70 % 1014,3 hPa 0,0 l/m 0 min 0 min 347 W/m 16,1 km/h (3 Bft) 97,87 %
26.05.2019 12:42 19,6 C 21,1 C 20,0 C 70 % 1014,3 hPa 0,0 l/m 0 min 0 min 346 W/m 19,3 km/h (3 Bft) 97,87 %
26.05.2019 12:44 19,7 C 20,6 C 20,0 C 70 % 1014,4 hPa 0,0 l/m 0 min 0 min 347 W/m 22,5 km/h (4 Bft) 94,29 %
26.05.2019 12:46 19,7 C 20,6 C 20,0 C 69 % 1014,3 hPa 0,0 l/m 0 min 0 min 351 W/m 19,3 km/h (3 Bft) 97,87 %
26.05.2019 12:48 19,7 C 21,1 C 20,0 C 70 % 1014,3 hPa 0,0 l/m 0 min 0 min 347 W/m 12,9 km/h (3 Bft) 98,28 %
26.05.2019 12:50 19,8 C 20,6 C 20,0 C 70 % 1014,3 hPa 0,0 l/m 0 min 0 min 345 W/m 19,3 km/h (3 Bft) 97,87 %
26.05.2019 12:52 19,8 C 20,6 C 20,0 C 70 % 1014,3 hPa 0,0 l/m 0 min 0 min 341 W/m 19,3 km/h (3 Bft) 97,87 %
26.05.2019 12:54 19,8 C 20,6 C 20,0 C 70 % 1014,2 hPa 0,0 l/m 0 min 0 min 330 W/m 16,1 km/h (3 Bft) 97,87 %
26.05.2019 12:56 19,8 C 20,0 C 19,4 C 68 % 1014,2 hPa 0,0 l/m 0 min 0 min 302 W/m 25,7 km/h (4 Bft) 97,87 %
26.05.2019 12:58 19,8 C 20,0 C 19,4 C 68 % 1014,1 hPa 0,0 l/m 0 min 0 min 300 W/m 22,5 km/h (4 Bft) 97,83 %
26.05.2019 13:00 19,8 C 20,0 C 19,4 C 69 % 1014,1 hPa 0,0 l/m 0 min 0 min 301 W/m 16,1 km/h (3 Bft) 95,83 %
26.05.2019 13:02 19,8 C 20,0 C 19,4 C 70 % 1014,1 hPa 0,0 l/m 0 min 0 min 295 W/m 12,9 km/h (3 Bft) 95,65 %
26.05.2019 13:04 19,8 C 20,6 C 20,0 C 70 % 1014,0 hPa 0,0 l/m 0 min 0 min 302 W/m 16,1 km/h (3 Bft) 93,62 %
26.05.2019 13:06 19,9 C 20,6 C 20,0 C 70 % 1014,0 hPa 0,0 l/m 0 min 0 min 313 W/m 9,7 km/h (2 Bft) 93,62 %
26.05.2019 13:08 19,9 C 20,6 C 20,0 C 70 % 1014,0 hPa 0,0 l/m 0 min 0 min 322 W/m 12,9 km/h (3 Bft) 95,74 %
26.05.2019 13:10 19,9 C 21,1 C 20,0 C 69 % 1014,1 hPa 0,0 l/m 0 min 0 min 343 W/m 16,1 km/h (3 Bft) 97,83 %
26.05.2019 13:12 19,9 C 21,1 C 20,0 C 69 % 1014,1 hPa 0,0 l/m 0 min 0 min 372 W/m 19,3 km/h (3 Bft) 97,22 %
26.05.2019 13:14 20,0 C 21,7 C 20,6 C 70 % 1014,2 hPa 0,0 l/m 0 min 0 min 387 W/m 12,9 km/h (3 Bft) 98,28 %
26.05.2019 13:16 20,1 C 21,7 C 20,6 C 70 % 1014,1 hPa 0,0 l/m 0 min 0 min 404 W/m 16,1 km/h (3 Bft) 97,87 %
26.05.2019 13:18 20,1 C 21,1 C 20,6 C 69 % 1014,1 hPa 0,0 l/m 2 min 0 min 424 W/m 16,1 km/h (3 Bft) 91,43 %
26.05.2019 13:20 20,2 C 21,7 C 21,1 C 70 % 1014,1 hPa 0,0 l/m 2 min 0 min 444 W/m 16,1 km/h (3 Bft) 98,31 %
26.05.2019 13:22 20,2 C 22,2 C 21,1 C 69 % 1014,0 hPa 0,0 l/m 2 min 0 min 454 W/m 12,9 km/h (3 Bft) 97,87 %
26.05.2019 13:24 20,3 C 22,2 C 21,1 C 69 % 1014,1 hPa 0,0 l/m 2 min 0 min 455 W/m 16,1 km/h (3 Bft) 97,83 %
26.05.2019 13:26 20,4 C 22,8 C 21,7 C 70 % 1014,0 hPa 0,0 l/m 2 min 0 min 463 W/m 25,7 km/h (4 Bft) 97,87 %
26.05.2019 13:28 20,4 C 22,8 C 21,1 C 69 % 1014,0 hPa 0,0 l/m 2 min 0 min 471 W/m 12,9 km/h (3 Bft) 97,87 %
26.05.2019 13:30 20,5 C 22,2 C 21,7 C 69 % 1014,0 hPa 0,0 l/m 2 min 0 min 473 W/m 16,1 km/h (3 Bft) 100,00 %
26.05.2019 13:32 20,6 C 22,2 C 21,7 C 69 % 1014,0 hPa 0,0 l/m 2 min 0 min 468 W/m 29,0 km/h (5 Bft) 95,74 %
26.05.2019 13:34 20,6 C 22,8 C 21,7 C 69 % 1013,9 hPa 0,0 l/m 2 min 0 min 479 W/m 9,7 km/h (2 Bft) 97,87 %
26.05.2019 13:36 20,7 C 22,8 C 21,7 C 69 % 1013,9 hPa 0,0 l/m 2 min 0 min 461 W/m 12,9 km/h (3 Bft) 97,83 %
26.05.2019 13:38 20,7 C 22,8 C 21,7 C 69 % 1013,9 hPa 0,0 l/m 2 min 0 min 424 W/m 16,1 km/h (3 Bft) 95,74 %
26.05.2019 13:40 20,8 C 21,7 C 21,1 C 68 % 1013,9 hPa 0,0 l/m 0 min 0 min 382 W/m 16,1 km/h (3 Bft) 95,74 %
26.05.2019 13:42 20,8 C 21,7 C 21,1 C 68 % 1013,9 hPa 0,0 l/m 0 min 0 min 359 W/m 29,0 km/h (5 Bft) 100,00 %
26.05.2019 13:44 20,9 C 21,7 C 21,1 C 68 % 1013,9 hPa 0,0 l/m 0 min 0 min 349 W/m 16,1 km/h (3 Bft) 94,92 %
26.05.2019 13:46 20,9 C 21,7 C 21,1 C 68 % 1013,9 hPa 0,0 l/m 0 min 0 min 352 W/m 19,3 km/h (3 Bft) 97,83 %
26.05.2019 13:48 20,9 C 21,7 C 21,1 C 68 % 1013,8 hPa 0,0 l/m 0 min 0 min 363 W/m 22,5 km/h (4 Bft) 97,87 %
26.05.2019 13:50 20,9 C 21,7 C 21,1 C 68 % 1013,8 hPa 0,0 l/m 0 min 0 min 365 W/m 16,1 km/h (3 Bft) 95,74 %
26.05.2019 13:52 20,9 C 21,7 C 21,1 C 68 % 1013,8 hPa 0,0 l/m 0 min 0 min 364 W/m 19,3 km/h (3 Bft) 100,00 %
26.05.2019 13:54 20,9 C 21,7 C 21,1 C 67 % 1013,9 hPa 0,0 l/m 0 min 0 min 367 W/m 16,1 km/h (3 Bft) 100,00 %
26.05.2019 13:56 20,9 C 21,7 C 21,1 C 68 % 1013,8 hPa 0,0 l/m 0 min 0 min 369 W/m 29,0 km/h (5 Bft) 98,31 %
26.05.2019 13:58 20,9 C 21,7 C 21,1 C 67 % 1013,8 hPa 0,0 l/m 0 min 0 min 365 W/m 22,5 km/h (4 Bft) 97,87 %
26.05.2019 14:00 20,9 C 22,2 C 21,1 C 68 % 1013,7 hPa 0,0 l/m 0 min 0 min 362 W/m 16,1 km/h (3 Bft) 100,00 %
26.05.2019 14:02 20,9 C 22,2 C 21,1 C 68 % 1013,7 hPa 0,0 l/m 0 min 0 min 378 W/m 22,5 km/h (4 Bft) 100,00 %
26.05.2019 14:04 20,9 C 21,7 C 21,1 C 67 % 1013,7 hPa 0,0 l/m 0 min 0 min 385 W/m 19,3 km/h (3 Bft) 100,00 %
26.05.2019 14:06 20,9 C 21,7 C 21,1 C 67 % 1013,7 hPa 0,0 l/m 0 min 0 min 378 W/m 16,1 km/h (3 Bft) 97,87 %
26.05.2019 14:08 20,9 C 21,7 C 21,1 C 67 % 1013,7 hPa 0,0 l/m 0 min 0 min 367 W/m 9,7 km/h (2 Bft) 100,00 %
26.05.2019 14:10 20,9 C 21,7 C 21,1 C 68 % 1013,6 hPa 0,0 l/m 0 min 0 min 357 W/m 9,7 km/h (2 Bft) 100,00 %
26.05.2019 14:12 20,9 C 22,2 C 21,1 C 68 % 1013,5 hPa 0,0 l/m 0 min 0 min 344 W/m 9,7 km/h (2 Bft) 100,00 %
26.05.2019 14:14 20,9 C 22,2 C 21,1 C 68 % 1013,6 hPa 0,0 l/m 0 min 0 min 332 W/m 12,9 km/h (3 Bft) 98,31 %
26.05.2019 14:16 20,9 C 21,7 C 21,1 C 68 % 1013,6 hPa 0,0 l/m 0 min 0 min 326 W/m 9,7 km/h (2 Bft) 100,00 %
26.05.2019 14:18 20,9 C 21,7 C 21,1 C 67 % 1013,6 hPa 0,0 l/m 0 min 0 min 329 W/m 12,9 km/h (3 Bft) 100,00 %
26.05.2019 14:20 21,0 C 21,7 C 21,1 C 67 % 1013,6 hPa 0,0 l/m 0 min 0 min 331 W/m 12,9 km/h (3 Bft) 97,14 %
26.05.2019 14:22 21,0 C 21,7 C 21,1 C 67 % 1013,6 hPa 0,0 l/m 0 min 0 min 329 W/m 16,1 km/h (3 Bft) 100,00 %
26.05.2019 14:24 21,0 C 21,7 C 21,1 C 68 % 1013,4 hPa 0,0 l/m 0 min 0 min 322 W/m 9,7 km/h (2 Bft) 100,00 %
26.05.2019 14:26 21,0 C 21,7 C 21,1 C 67 % 1013,5 hPa 0,0 l/m 0 min 0 min 300 W/m 16,1 km/h (3 Bft) 97,87 %
26.05.2019 14:28 21,0 C 21,7 C 21,1 C 68 % 1013,5 hPa 0,0 l/m 0 min 0 min 283 W/m 16,1 km/h (3 Bft) 97,87 %
26.05.2019 14:30 21,0 C 21,1 C 20,6 C 68 % 1013,5 hPa 0,0 l/m 0 min 0 min 279 W/m 9,7 km/h (2 Bft) 93,62 %
26.05.2019 14:32 20,9 C 21,1 C 20,6 C 68 % 1013,5 hPa 0,0 l/m 0 min 0 min 280 W/m 22,5 km/h (4 Bft) 95,65 %
26.05.2019 14:34 20,9 C 21,1 C 20,6 C 68 % 1013,3 hPa 0,0 l/m 0 min 0 min 286 W/m 16,1 km/h (3 Bft) 97,87 %
26.05.2019 14:36 20,9 C 21,1 C 20,6 C 68 % 1013,4 hPa 0,0 l/m 0 min 0 min 283 W/m 19,3 km/h (3 Bft) 95,74 %
26.05.2019 14:38 20,9 C 21,1 C 20,6 C 69 % 1013,4 hPa 0,0 l/m 0 min 0 min 275 W/m 12,9 km/h (3 Bft) 97,87 %
26.05.2019 14:40 20,9 C 21,1 C 20,6 C 69 % 1013,4 hPa 0,0 l/m 0 min 0 min 287 W/m 16,1 km/h (3 Bft) 97,87 %
26.05.2019 14:42 20,9 C 21,1 C 20,6 C 68 % 1013,3 hPa 0,0 l/m 0 min 0 min 305 W/m 22,5 km/h (4 Bft) 97,87 %
26.05.2019 14:44 20,9 C 21,1 C 20,6 C 68 % 1013,3 hPa 0,0 l/m 0 min 0 min 313 W/m 25,7 km/h (4 Bft) 95,74 %
26.05.2019 14:46 20,9 C 21,1 C 20,6 C 69 % 1013,3 hPa 0,0 l/m 0 min 0 min 311 W/m 16,1 km/h (3 Bft) 93,48 %
26.05.2019 14:48 20,9 C 21,1 C 20,6 C 68 % 1013,3 hPa 0,0 l/m 0 min 0 min 321 W/m 16,1 km/h (3 Bft) 97,87 %
26.05.2019 14:50 20,9 C 21,7 C 21,1 C 69 % 1013,3 hPa 0,0 l/m 0 min 0 min 343 W/m 16,1 km/h (3 Bft) 97,87 %
26.05.2019 14:52 21,0 C 22,2 C 21,1 C 69 % 1013,2 hPa 0,0 l/m 0 min 0 min 360 W/m 9,7 km/h (2 Bft) 97,87 %
26.05.2019 14:54 21,0 C 21,7 C 21,1 C 68 % 1013,2 hPa 0,0 l/m 0 min 0 min 372 W/m 19,3 km/h (3 Bft) 97,87 %
26.05.2019 14:56 21,0 C 21,7 C 21,1 C 66 % 1013,2 hPa 0,0 l/m 0 min 0 min 380 W/m 29,0 km/h (5 Bft) 97,83 %
26.05.2019 14:58 21,0 C 21,7 C 21,1 C 66 % 1013,2 hPa 0,0 l/m 0 min 0 min 381 W/m 12,9 km/h (3 Bft) 94,44 %
26.05.2019 15:00 21,1 C 22,2 C 21,1 C 66 % 1013,2 hPa 0,0 l/m 0 min 0 min 370 W/m 22,5 km/h (4 Bft) 98,28 %
26.05.2019 15:02 21,1 C 22,8 C 21,7 C 67 % 1013,1 hPa 0,0 l/m 0 min 0 min 350 W/m 9,7 km/h (2 Bft) 97,14 %
26.05.2019 15:04 21,2 C 22,8 C 21,7 C 68 % 1013,1 hPa 0,0 l/m 0 min 0 min 373 W/m 12,9 km/h (3 Bft) 96,61 %
26.05.2019 15:06 21,2 C 22,8 C 21,7 C 67 % 1013,2 hPa 0,0 l/m 0 min 0 min 394 W/m 16,1 km/h (3 Bft) 93,62 %
26.05.2019 15:08 21,2 C 22,8 C 21,7 C 67 % 1013,0 hPa 0,0 l/m 2 min 0 min 395 W/m 12,9 km/h (3 Bft) 100,00 %
26.05.2019 15:10 21,3 C 22,8 C 21,7 C 66 % 1013,1 hPa 0,0 l/m 2 min 0 min 401 W/m 9,7 km/h (2 Bft) 97,87 %
26.05.2019 15:12 21,3 C 22,8 C 21,7 C 66 % 1013,1 hPa 0,0 l/m 2 min 0 min 399 W/m 12,9 km/h (3 Bft) 97,14 %
26.05.2019 15:14 21,4 C 22,8 C 21,7 C 65 % 1013,1 hPa 0,0 l/m 2 min 0 min 401 W/m 22,5 km/h (4 Bft) 100,00 %
26.05.2019 15:16 21,4 C 22,8 C 21,7 C 65 % 1013,0 hPa 0,0 l/m 2 min 0 min 391 W/m 16,1 km/h (3 Bft) 100,00 %
26.05.2019 15:18 21,4 C 22,8 C 21,7 C 65 % 1013,0 hPa 0,0 l/m 2 min 0 min 389 W/m 12,9 km/h (3 Bft) 100,00 %
26.05.2019 15:20 21,5 C 22,8 C 21,7 C 65 % 1013,0 hPa 0,0 l/m 2 min 0 min 387 W/m 19,3 km/h (3 Bft) 97,83 %
26.05.2019 15:22 21,6 C 22,8 C 21,7 C 65 % 1013,0 hPa 0,0 l/m 0 min 0 min 382 W/m 12,9 km/h (3 Bft) 97,22 %
26.05.2019 15:24 21,6 C 22,8 C 21,7 C 65 % 1013,1 hPa 0,0 l/m 0 min 0 min 381 W/m 16,1 km/h (3 Bft) 100,00 %
26.05.2019 15:26 21,6 C 22,8 C 21,7 C 65 % 1012,9 hPa 0,0 l/m 0 min 0 min 367 W/m 12,9 km/h (3 Bft) 95,74 %
26.05.2019 15:28 21,6 C 22,8 C 21,7 C 65 % 1013,0 hPa 0,0 l/m 0 min 0 min 342 W/m 9,7 km/h (2 Bft) 100,00 %
26.05.2019 15:30 21,7 C 22,8 C 21,7 C 65 % 1013,0 hPa 0,0 l/m 0 min 0 min 339 W/m 16,1 km/h (3 Bft) 97,87 %
26.05.2019 15:32 21,7 C 22,8 C 21,7 C 65 % 1013,0 hPa 0,0 l/m 0 min 0 min 350 W/m 16,1 km/h (3 Bft) 100,00 %
26.05.2019 15:34 21,7 C 22,8 C 21,7 C 65 % 1013,0 hPa 0,0 l/m 0 min 0 min 350 W/m 16,1 km/h (3 Bft) 100,00 %
26.05.2019 15:36 21,7 C 22,2 C 21,7 C 65 % 1013,0 hPa 0,0 l/m 0 min 0 min 326 W/m 16,1 km/h (3 Bft) 100,00 %
26.05.2019 15:38 21,7 C 22,2 C 21,7 C 65 % 1012,9 hPa 0,0 l/m 0 min 0 min 305 W/m 9,7 km/h (2 Bft) 100,00 %
26.05.2019 15:40 21,7 C 22,2 C 21,7 C 65 % 1013,0 hPa 0,0 l/m 0 min 0 min 298 W/m 12,9 km/h (3 Bft) 97,87 %
26.05.2019 15:42 21,7 C 21,7 C 21,1 C 65 % 1012,9 hPa 0,0 l/m 0 min 0 min 286 W/m 22,5 km/h (4 Bft) 100,00 %
26.05.2019 15:44 21,7 C 21,7 C 21,1 C 64 % 1013,0 hPa 0,0 l/m 0 min 0 min 281 W/m 29,0 km/h (5 Bft) 100,00 %
26.05.2019 15:46 21,6 C 21,7 C 21,1 C 65 % 1013,0 hPa 0,0 l/m 0 min 0 min 286 W/m 22,5 km/h (4 Bft) 100,00 %
26.05.2019 15:48 21,6 C 22,2 C 21,1 C 65 % 1013,0 hPa 0,0 l/m 0 min 0 min 298 W/m 16,1 km/h (3 Bft) 98,28 %
26.05.2019 15:50 21,6 C 22,2 C 21,7 C 66 % 1012,9 hPa 0,0 l/m 0 min 0 min 301 W/m 16,1 km/h (3 Bft) 95,74 %
26.05.2019 15:52 21,6 C 22,2 C 21,7 C 66 % 1012,9 hPa 0,0 l/m 0 min 0 min 299 W/m 12,9 km/h (3 Bft) 100,00 %
26.05.2019 15:54 21,6 C 22,2 C 21,7 C 66 % 1012,9 hPa 0,0 l/m 0 min 0 min 297 W/m 9,7 km/h (2 Bft) 97,87 %
26.05.2019 15:56 21,7 C 22,2 C 21,7 C 66 % 1012,9 hPa 0,0 l/m 0 min 0 min 296 W/m 9,7 km/h (2 Bft) 96,61 %
26.05.2019 15:58 21,7 C 22,2 C 21,7 C 66 % 1012,8 hPa 0,0 l/m 0 min 0 min 302 W/m 12,9 km/h (3 Bft) 97,87 %
26.05.2019 16:00 21,7 C 22,2 C 21,7 C 65 % 1012,9 hPa 0,0 l/m 0 min 0 min 300 W/m 16,1 km/h (3 Bft) 94,29 %
26.05.2019 16:02 21,7 C 21,7 C 21,7 C 65 % 1012,9 hPa 0,0 l/m 0 min 0 min 287 W/m 19,3 km/h (3 Bft) 97,96 %
26.05.2019 16:04 21,6 C 22,2 C 21,1 C 65 % 1012,7 hPa 0,0 l/m 0 min 0 min 276 W/m 22,5 km/h (4 Bft) 95,74 %
26.05.2019 16:06 21,6 C 22,2 C 21,1 C 64 % 1012,7 hPa 0,0 l/m 0 min 0 min 262 W/m 19,3 km/h (3 Bft) 95,74 %
26.05.2019 16:08 21,6 C 22,2 C 21,1 C 65 % 1012,7 hPa 0,0 l/m 0 min 0 min 250 W/m 16,1 km/h (3 Bft) 95,65 %
26.05.2019 16:10 21,6 C 21,7 C 21,1 C 65 % 1012,7 hPa 0,0 l/m 0 min 0 min 245 W/m 12,9 km/h (3 Bft) 95,74 %
26.05.2019 16:12 21,6 C 21,7 C 21,1 C 65 % 1012,6 hPa 0,0 l/m 0 min 0 min 246 W/m 12,9 km/h (3 Bft) 91,49 %
26.05.2019 16:14 21,6 C 21,7 C 21,1 C 65 % 1012,7 hPa 0,0 l/m 0 min 0 min 259 W/m 22,5 km/h (4 Bft) 95,74 %
26.05.2019 16:16 21,6 C 21,7 C 21,1 C 65 % 1012,7 hPa 0,0 l/m 0 min 0 min 277 W/m 16,1 km/h (3 Bft) 93,62 %
26.05.2019 16:18 21,6 C 22,2 C 21,1 C 65 % 1012,7 hPa 0,0 l/m 0 min 0 min 280 W/m 16,1 km/h (3 Bft) 91,49 %
26.05.2019 16:20 21,6 C 22,2 C 21,7 C 66 % 1012,6 hPa 0,0 l/m 0 min 0 min 262 W/m 19,3 km/h (3 Bft) 93,48 %
26.05.2019 16:22 21,6 C 22,2 C 21,7 C 65 % 1012,7 hPa 0,0 l/m 0 min 0 min 240 W/m 16,1 km/h (3 Bft) 95,74 %
26.05.2019 16:24 21,6 C 21,7 C 21,1 C 65 % 1012,7 hPa 0,0 l/m 0 min 0 min 219 W/m 9,7 km/h (2 Bft) 93,62 %
26.05.2019 16:26 21,6 C 21,7 C 21,1 C 64 % 1012,6 hPa 0,0 l/m 0 min 0 min 203 W/m 12,9 km/h (3 Bft) 93,62 %
26.05.2019 16:28 21,6 C 21,7 C 21,1 C 64 % 1012,6 hPa 0,0 l/m 0 min 0 min 195 W/m 12,9 km/h (3 Bft) 95,74 %
26.05.2019 16:30 21,6 C 21,1 C 21,1 C 64 % 1012,6 hPa 0,0 l/m 0 min 0 min 196 W/m 19,3 km/h (3 Bft) 95,74 %
26.05.2019 16:32 21,6 C 21,1 C 21,1 C 64 % 1012,6 hPa 0,0 l/m 0 min 0 min 196 W/m 12,9 km/h (3 Bft) 95,65 %
26.05.2019 16:34 21,6 C 21,7 C 21,1 C 65 % 1012,6 hPa 0,0 l/m 0 min 0 min 192 W/m 9,7 km/h (2 Bft) 95,74 %
26.05.2019 16:36 21,6 C 21,7 C 21,1 C 65 % 1012,5 hPa 0,0 l/m 0 min 0 min 186 W/m 19,3 km/h (3 Bft) 95,74 %
26.05.2019 16:38 21,5 C 21,1 C 21,1 C 65 % 1012,5 hPa 0,0 l/m 0 min 0 min 183 W/m 16,1 km/h (3 Bft) 95,74 %
26.05.2019 16:40 21,5 C 21,1 C 20,6 C 64 % 1012,5 hPa 0,0 l/m 0 min 0 min 186 W/m 16,1 km/h (3 Bft) 95,74 %
26.05.2019 16:42 21,4 C 21,1 C 20,6 C 65 % 1012,5 hPa 0,0 l/m 0 min 0 min 208 W/m 22,5 km/h (4 Bft) 95,74 %
26.05.2019 16:44 21,4 C 21,1 C 20,6 C 65 % 1012,5 hPa 0,0 l/m 0 min 0 min 232 W/m 29,0 km/h (5 Bft) 97,83 %
26.05.2019 16:46 21,4 C 21,1 C 20,6 C 65 % 1012,5 hPa 0,0 l/m 0 min 0 min 244 W/m 12,9 km/h (3 Bft) 95,74 %
26.05.2019 16:48 21,4 C 21,1 C 21,1 C 65 % 1012,5 hPa 0,0 l/m 0 min 0 min 230 W/m 19,3 km/h (3 Bft) 97,87 %
26.05.2019 16:50 21,4 C 21,1 C 21,1 C 65 % 1012,4 hPa 0,0 l/m 0 min 0 min 212 W/m 9,7 km/h (2 Bft) 97,87 %
26.05.2019 16:52 21,4 C 21,1 C 20,6 C 65 % 1012,5 hPa 0,0 l/m 0 min 0 min 200 W/m 16,1 km/h (3 Bft) 91,49 %
26.05.2019 16:54 21,4 C 21,1 C 20,6 C 65 % 1012,5 hPa 0,0 l/m 0 min 0 min 190 W/m 19,3 km/h (3 Bft) 97,87 %
26.05.2019 16:56 21,3 C 21,1 C 20,6 C 65 % 1012,5 hPa 0,0 l/m 0 min 0 min 185 W/m 12,9 km/h (3 Bft) 97,83 %
26.05.2019 16:58 21,3 C 21,1 C 20,6 C 65 % 1012,5 hPa 0,0 l/m 0 min 0 min 187 W/m 6,4 km/h (2 Bft) 97,87 %
26.05.2019 17:00 21,3 C 21,1 C 20,6 C 66 % 1012,5 hPa 0,0 l/m 0 min 0 min 188 W/m 12,9 km/h (3 Bft) 95,74 %
26.05.2019 17:02 21,3 C 21,1 C 20,6 C 65 % 1012,5 hPa 0,0 l/m 0 min 0 min 184 W/m 12,9 km/h (3 Bft) 95,74 %
26.05.2019 17:04 21,3 C 21,1 C 20,6 C 65 % 1012,4 hPa 0,0 l/m 0 min 0 min 172 W/m 12,9 km/h (3 Bft) 97,87 %
26.05.2019 17:06 21,3 C 21,1 C 20,6 C 66 % 1012,4 hPa 0,0 l/m 0 min 0 min 162 W/m 12,9 km/h (3 Bft) 95,74 %
26.05.2019 17:08 21,2 C 21,1 C 20,6 C 66 % 1012,4 hPa 0,0 l/m 0 min 0 min 155 W/m 12,9 km/h (3 Bft) 97,83 %
26.05.2019 17:10 21,2 C 21,1 C 20,6 C 66 % 1012,4 hPa 0,0 l/m 0 min 0 min 143 W/m 9,7 km/h (2 Bft) 91,49 %
26.05.2019 17:12 21,2 C 20,6 C 20,6 C 66 % 1012,4 hPa 0,0 l/m 0 min 0 min 128 W/m 16,1 km/h (3 Bft) 95,74 %
26.05.2019 17:14 21,2 C 20,6 C 20,0 C 66 % 1012,4 hPa 0,0 l/m 0 min 0 min 125 W/m 12,9 km/h (3 Bft) 97,87 %
26.05.2019 17:16 21,2 C 20,6 C 20,0 C 66 % 1012,4 hPa 0,0 l/m 0 min 0 min 124 W/m 6,4 km/h (2 Bft) 97,87 %
26.05.2019 17:18 21,1 C 20,6 C 20,0 C 66 % 1012,3 hPa 0,0 l/m 0 min 0 min 116 W/m 12,9 km/h (3 Bft) 97,87 %
26.05.2019 17:20 21,1 C 20,6 C 20,0 C 65 % 1012,2 hPa 0,0 l/m 0 min 0 min 109 W/m 19,3 km/h (3 Bft) 97,87 %
26.05.2019 17:22 21,1 C 20,6 C 20,0 C 65 % 1012,2 hPa 0,0 l/m 0 min 0 min 99 W/m 16,1 km/h (3 Bft) 97,87 %
26.05.2019 17:24 21,0 C 20,0 C 20,0 C 65 % 1012,2 hPa 0,0 l/m 0 min 0 min 89 W/m 12,9 km/h (3 Bft) 97,87 %
26.05.2019 17:26 21,0 C 20,0 C 20,0 C 66 % 1012,2 hPa 0,0 l/m 0 min 0 min 79 W/m 9,7 km/h (2 Bft) 95,74 %
26.05.2019 17:28 21,0 C 20,0 C 20,0 C 66 % 1012,1 hPa 0,0 l/m 0 min 0 min 74 W/m 12,9 km/h (3 Bft) 93,62 %
26.05.2019 17:30 20,9 C 20,0 C 19,4 C 66 % 1012,1 hPa 0,0 l/m 0 min 0 min 70 W/m 12,9 km/h (3 Bft) 97,83 %
26.05.2019 17:32 20,9 C 20,0 C 19,4 C 66 % 1012,1 hPa 0,0 l/m 0 min 0 min 69 W/m 12,9 km/h (3 Bft) 97,87 %
26.05.2019 17:34 20,9 C 20,0 C 19,4 C 66 % 1012,1 hPa 0,0 l/m 0 min 0 min 70 W/m 9,7 km/h (2 Bft) 97,87 %
26.05.2019 17:36 20,8 C 20,0 C 19,4 C 66 % 1012,0 hPa 0,0 l/m 0 min 0 min 77 W/m 6,4 km/h (2 Bft) 97,87 %
26.05.2019 17:38 20,8 C 20,0 C 19,4 C 66 % 1012,0 hPa 0,0 l/m 0 min 0 min 89 W/m 9,7 km/h (2 Bft) 97,87 %
26.05.2019 17:40 20,8 C 20,0 C 19,4 C 67 % 1012,0 hPa 0,0 l/m 0 min 0 min 99 W/m 9,7 km/h (2 Bft) 100,00 %
26.05.2019 17:42 20,8 C 20,0 C 19,4 C 66 % 1012,0 hPa 0,0 l/m 0 min 0 min 99 W/m 9,7 km/h (2 Bft) 100,00 %
26.05.2019 17:44 20,7 C 20,0 C 19,4 C 67 % 1012,0 hPa 0,0 l/m 0 min 0 min 94 W/m 9,7 km/h (2 Bft) 97,87 %
26.05.2019 17:46 20,7 C 20,0 C 19,4 C 67 % 1012,1 hPa 0,0 l/m 0 min 0 min 90 W/m 9,7 km/h (2 Bft) 100,00 %
26.05.2019 17:48 20,7 C 20,0 C 19,4 C 67 % 1012,0 hPa 0,0 l/m 0 min 0 min 88 W/m 6,4 km/h (2 Bft) 100,00 %
26.05.2019 17:50 20,7 C 20,0 C 19,4 C 67 % 1012,0 hPa 0,0 l/m 0 min 0 min 87 W/m 6,4 km/h (2 Bft) 97,87 %
26.05.2019 17:52 20,7 C 20,0 C 19,4 C 67 % 1012,0 hPa 0,0 l/m 0 min 0 min 81 W/m 19,3 km/h (3 Bft) 100,00 %
26.05.2019 17:54 20,7 C 20,0 C 19,4 C 67 % 1012,0 hPa 0,0 l/m 0 min 0 min 75 W/m 9,7 km/h (2 Bft) 97,83 %
26.05.2019 17:56 20,7 C 20,0 C 19,4 C 67 % 1012,0 hPa 0,0 l/m 0 min 0 min 77 W/m 6,4 km/h (2 Bft) 97,87 %
26.05.2019 17:58 20,7 C 20,0 C 19,4 C 67 % 1012,0 hPa 0,0 l/m 0 min 0 min 80 W/m 16,1 km/h (3 Bft) 100,00 %
26.05.2019 18:00 20,6 C 20,0 C 19,4 C 67 % 1011,9 hPa 0,0 l/m 0 min 0 min 83 W/m 16,1 km/h (3 Bft) 100,00 %
26.05.2019 18:02 20,6 C 20,0 C 19,4 C 67 % 1011,9 hPa 0,0 l/m 0 min 0 min 83 W/m 12,9 km/h (3 Bft) 100,00 %
26.05.2019 18:04 20,6 C 20,0 C 19,4 C 67 % 1011,9 hPa 0,0 l/m 0 min 0 min 81 W/m 16,1 km/h (3 Bft) 100,00 %
26.05.2019 18:08 20,6 C 20,0 C 19,4 C 67 % 1011,9 hPa 0,0 l/m 0 min 0 min 79 W/m 16,1 km/h (3 Bft) 97,85 %
26.05.2019 18:10 20,6 C 20,0 C 19,4 C 67 % 1011,8 hPa 0,0 l/m 0 min 0 min 79 W/m 12,9 km/h (3 Bft) 97,87 %
26.05.2019 18:12 20,5 C 20,0 C 19,4 C 68 % 1011,8 hPa 0,0 l/m 0 min 0 min 77 W/m 6,4 km/h (2 Bft) 95,74 %
26.05.2019 18:14 20,5 C 20,0 C 19,4 C 68 % 1011,8 hPa 0,0 l/m 0 min 0 min 77 W/m 6,4 km/h (2 Bft) 100,00 %
26.05.2019 18:16 20,5 C 20,0 C 19,4 C 68 % 1011,8 hPa 0,0 l/m 0 min 0 min 80 W/m 9,7 km/h (2 Bft) 100,00 %
26.05.2019 18:18 20,5 C 20,0 C 19,4 C 68 % 1011,8 hPa 0,0 l/m 0 min 0 min 82 W/m 6,4 km/h (2 Bft) 100,00 %
26.05.2019 18:20 20,5 C 20,0 C 19,4 C 69 % 1011,8 hPa 0,0 l/m 0 min 0 min 84 W/m 9,7 km/h (2 Bft) 100,00 %
26.05.2019 18:22 20,5 C 20,0 C 19,4 C 69 % 1011,7 hPa 0,0 l/m 0 min 0 min 86 W/m 6,4 km/h (2 Bft) 97,87 %
26.05.2019 18:24 20,4 C 20,0 C 19,4 C 68 % 1011,7 hPa 0,0 l/m 0 min 0 min 83 W/m 6,4 km/h (2 Bft) 100,00 %
26.05.2019 18:26 20,4 C 20,0 C 19,4 C 69 % 1011,7 hPa 0,0 l/m 0 min 0 min 75 W/m 6,4 km/h (2 Bft) 100,00 %
26.05.2019 18:28 20,4 C 20,0 C 19,4 C 69 % 1011,6 hPa 0,0 l/m 0 min 0 min 69 W/m 9,7 km/h (2 Bft) 100,00 %
26.05.2019 18:30 20,4 C 19,4 C 19,4 C 69 % 1011,6 hPa 0,0 l/m 0 min 0 min 69 W/m 12,9 km/h (3 Bft) 100,00 %
26.05.2019 18:32 20,4 C 19,4 C 19,4 C 69 % 1011,6 hPa 0,0 l/m 0 min 0 min 69 W/m 6,4 km/h (2 Bft) 100,00 %
26.05.2019 18:34 20,4 C 19,4 C 19,4 C 70 % 1011,7 hPa 0,0 l/m 0 min 0 min 72 W/m 3,2 km/h (1 Bft) 95,74 %
26.05.2019 18:36 20,4 C 19,4 C 19,4 C 70 % 1011,6 hPa 0,0 l/m 0 min 0 min 78 W/m 12,9 km/h (3 Bft) 100,00 %
26.05.2019 18:38 20,4 C 19,4 C 19,4 C 70 % 1011,6 hPa 0,0 l/m 0 min 0 min 86 W/m 9,7 km/h (2 Bft) 97,87 %
26.05.2019 18:40 20,3 C 19,4 C 19,4 C 70 % 1011,6 hPa 0,0 l/m 0 min 0 min 95 W/m 12,9 km/h (3 Bft) 100,00 %
26.05.2019 18:42 20,3 C 19,4 C 19,4 C 70 % 1011,6 hPa 0,0 l/m 0 min 0 min 102 W/m 12,9 km/h (3 Bft) 97,87 %
26.05.2019 18:44 20,3 C 19,4 C 19,4 C 70 % 1011,5 hPa 0,0 l/m 0 min 0 min 110 W/m 12,9 km/h (3 Bft) 97,87 %
26.05.2019 18:46 20,3 C 20,0 C 19,4 C 70 % 1011,5 hPa 0,0 l/m 0 min 0 min 139 W/m 19,3 km/h (3 Bft) 97,87 %
26.05.2019 18:48 20,3 C 20,0 C 19,4 C 70 % 1011,4 hPa 0,0 l/m 0 min 0 min 159 W/m 12,9 km/h (3 Bft) 100,00 %
26.05.2019 18:50 20,3 C 20,0 C 19,4 C 70 % 1011,5 hPa 0,0 l/m 0 min 0 min 173 W/m 19,3 km/h (3 Bft) 100,00 %
26.05.2019 18:52 20,3 C 20,0 C 19,4 C 70 % 1011,4 hPa 0,0 l/m 0 min 0 min 167 W/m 6,4 km/h (2 Bft) 97,83 %
26.05.2019 18:54 20,3 C 20,0 C 19,4 C 70 % 1011,4 hPa 0,0 l/m 0 min 0 min 163 W/m 12,9 km/h (3 Bft) 97,87 %
26.05.2019 18:56 20,3 C 20,0 C 19,4 C 70 % 1011,4 hPa 0,0 l/m 0 min 0 min 159 W/m 9,7 km/h (2 Bft) 97,87 %
26.05.2019 18:58 20,3 C 20,0 C 19,4 C 70 % 1011,5 hPa 0,0 l/m 0 min 0 min 155 W/m 9,7 km/h (2 Bft) 100,00 %
26.05.2019 19:00 20,3 C 20,0 C 19,4 C 70 % 1011,4 hPa 0,0 l/m 0 min 0 min 142 W/m 12,9 km/h (3 Bft) 100,00 %
26.05.2019 19:02 20,3 C 20,0 C 19,4 C 70 % 1011,3 hPa 0,0 l/m 0 min 0 min 138 W/m 16,1 km/h (3 Bft) 97,87 %
26.05.2019 19:04 20,3 C 20,0 C 19,4 C 70 % 1011,3 hPa 0,0 l/m 0 min 0 min 137 W/m 9,7 km/h (2 Bft) 97,83 %
26.05.2019 19:06 20,3 C 20,0 C 19,4 C 70 % 1011,3 hPa 0,0 l/m 0 min 0 min 139 W/m 9,7 km/h (2 Bft) 95,74 %
26.05.2019 19:08 20,4 C 20,0 C 19,4 C 70 % 1011,3 hPa 0,0 l/m 0 min 0 min 141 W/m 6,4 km/h (2 Bft) 97,87 %
26.05.2019 19:10 20,4 C 20,0 C 19,4 C 70 % 1011,3 hPa 0,0 l/m 0 min 0 min 144 W/m 6,4 km/h (2 Bft) 97,87 %
26.05.2019 19:12 20,4 C 20,6 C 20,0 C 70 % 1011,3 hPa 0,0 l/m 0 min 0 min 144 W/m 9,7 km/h (2 Bft) 95,74 %
26.05.2019 19:14 20,4 C 20,0 C 20,0 C 70 % 1011,3 hPa 0,0 l/m 0 min 0 min 147 W/m 22,5 km/h (4 Bft) 97,87 %
26.05.2019 19:16 20,4 C 20,6 C 20,0 C 70 % 1011,2 hPa 0,0 l/m 2 min 0 min 155 W/m 12,9 km/h (3 Bft) 97,83 %
26.05.2019 19:18 20,4 C 20,6 C 19,4 C 69 % 1011,2 hPa 0,0 l/m 2 min 0 min 219 W/m 19,3 km/h (3 Bft) 95,74 %
26.05.2019 19:20 20,4 C 20,6 C 20,0 C 68 % 1011,2 hPa 0,0 l/m 2 min 0 min 241 W/m 12,9 km/h (3 Bft) 95,74 %
26.05.2019 19:22 20,4 C 20,6 C 20,0 C 69 % 1011,1 hPa 0,0 l/m 2 min 0 min 241 W/m 12,9 km/h (3 Bft) 95,74 %
26.05.2019 19:24 20,5 C 20,6 C 20,0 C 69 % 1011,1 hPa 0,0 l/m 2 min 0 min 236 W/m 9,7 km/h (2 Bft) 97,87 %
26.05.2019 19:26 20,5 C 20,6 C 20,0 C 68 % 1011,2 hPa 0,0 l/m 2 min 0 min 244 W/m 16,1 km/h (3 Bft) 95,74 %
26.05.2019 19:28 20,6 C 20,6 C 20,0 C 68 % 1011,2 hPa 0,0 l/m 2 min 0 min 221 W/m 9,7 km/h (2 Bft) 93,48 %
26.05.2019 19:30 20,6 C 20,6 C 20,0 C 68 % 1011,2 hPa 0,0 l/m 2 min 0 min 224 W/m 9,7 km/h (2 Bft) 95,74 %
26.05.2019 19:32 20,6 C 20,6 C 20,0 C 68 % 1011,2 hPa 0,0 l/m 2 min 0 min 179 W/m 9,7 km/h (2 Bft) 93,62 %
26.05.2019 19:34 20,6 C 20,6 C 20,0 C 68 % 1011,2 hPa 0,0 l/m 2 min 0 min 141 W/m 16,1 km/h (3 Bft) 93,62 %
26.05.2019 19:36 20,7 C 20,6 C 20,0 C 68 % 1011,1 hPa 0,0 l/m 0 min 0 min 126 W/m 12,9 km/h (3 Bft) 93,62 %
26.05.2019 19:38 20,7 C 20,6 C 19,4 C 68 % 1011,1 hPa 0,0 l/m 0 min 0 min 122 W/m 9,7 km/h (2 Bft) 93,62 %
26.05.2019 19:40 20,7 C 20,6 C 19,4 C 68 % 1011,1 hPa 0,0 l/m 0 min 0 min 122 W/m 29,0 km/h (5 Bft) 95,65 %
26.05.2019 19:42 20,7 C 20,6 C 19,4 C 68 % 1011,0 hPa 0,0 l/m 0 min 0 min 116 W/m 9,7 km/h (2 Bft) 93,62 %
26.05.2019 19:44 20,7 C 20,0 C 19,4 C 68 % 1011,0 hPa 0,0 l/m 0 min 0 min 101 W/m 12,9 km/h (3 Bft) 89,36 %
26.05.2019 19:46 20,7 C 20,0 C 19,4 C 68 % 1011,0 hPa 0,0 l/m 0 min 0 min 109 W/m 12,9 km/h (3 Bft) 93,62 %
26.05.2019 19:48 20,7 C 20,6 C 19,4 C 68 % 1010,9 hPa 0,0 l/m 0 min 0 min 112 W/m 6,4 km/h (2 Bft) 93,88 %
26.05.2019 19:50 20,7 C 20,6 C 19,4 C 69 % 1010,9 hPa 0,0 l/m 0 min 0 min 112 W/m 12,9 km/h (3 Bft) 93,62 %
26.05.2019 19:52 20,7 C 20,0 C 19,4 C 68 % 1010,9 hPa 0,0 l/m 0 min 0 min 106 W/m 16,1 km/h (3 Bft) 91,49 %
26.05.2019 19:54 20,7 C 20,0 C 19,4 C 68 % 1011,0 hPa 0,0 l/m 0 min 0 min 97 W/m 12,9 km/h (3 Bft) 93,62 %
26.05.2019 19:56 20,8 C 20,0 C 19,4 C 68 % 1011,0 hPa 0,0 l/m 0 min 0 min 98 W/m 19,3 km/h (3 Bft) 93,62 %
26.05.2019 19:58 20,8 C 20,0 C 19,4 C 68 % 1011,0 hPa 0,0 l/m 0 min 0 min 97 W/m 12,9 km/h (3 Bft) 91,30 %
26.05.2019 20:00 20,8 C 20,0 C 19,4 C 68 % 1011,0 hPa 0,0 l/m 0 min 0 min 94 W/m 19,3 km/h (3 Bft) 93,62 %
26.05.2019 20:02 20,8 C 20,0 C 19,4 C 68 % 1011,1 hPa 0,0 l/m 0 min 0 min 96 W/m 19,3 km/h (3 Bft) 93,62 %
26.05.2019 20:04 20,8 C 20,0 C 19,4 C 67 % 1010,9 hPa 0,0 l/m 0 min 0 min 89 W/m 22,5 km/h (4 Bft) 93,62 %
26.05.2019 20:06 20,8 C 20,0 C 19,4 C 67 % 1010,9 hPa 0,0 l/m 0 min 0 min 70 W/m 19,3 km/h (3 Bft) 97,87 %
26.05.2019 20:08 20,7 C 20,0 C 19,4 C 68 % 1010,9 hPa 0,0 l/m 0 min 0 min 72 W/m 16,1 km/h (3 Bft) 95,65 %
26.05.2019 20:10 20,7 C 20,0 C 19,4 C 68 % 1010,9 hPa 0,0 l/m 0 min 0 min 71 W/m 9,7 km/h (2 Bft) 97,87 %
26.05.2019 20:12 20,7 C 20,0 C 19,4 C 68 % 1011,0 hPa 0,0 l/m 0 min 0 min 77 W/m 9,7 km/h (2 Bft) 97,87 %
26.05.2019 20:14 20,7 C 20,0 C 19,4 C 68 % 1010,9 hPa 0,0 l/m 0 min 0 min 71 W/m 16,1 km/h (3 Bft) 97,87 %
26.05.2019 20:16 20,7 C 20,0 C 19,4 C 68 % 1010,9 hPa 0,0 l/m 0 min 0 min 67 W/m 9,7 km/h (2 Bft) 100,00 %
26.05.2019 20:18 20,7 C 20,0 C 19,4 C 68 % 1010,9 hPa 0,0 l/m 0 min 0 min 70 W/m 16,1 km/h (3 Bft) 100,00 %
26.05.2019 20:20 20,7 C 20,0 C 19,4 C 68 % 1010,9 hPa 0,0 l/m 0 min 0 min 58 W/m 12,9 km/h (3 Bft) 100,00 %
26.05.2019 20:22 20,6 C 20,0 C 19,4 C 68 % 1010,8 hPa 0,0 l/m 0 min 0 min 46 W/m 9,7 km/h (2 Bft) 100,00 %
26.05.2019 20:24 20,6 C 19,4 C 18,9 C 68 % 1010,8 hPa 0,0 l/m 0 min 0 min 47 W/m 16,1 km/h (3 Bft) 97,87 %
26.05.2019 20:26 20,6 C 19,4 C 18,9 C 67 % 1010,8 hPa 0,0 l/m 0 min 0 min 44 W/m 12,9 km/h (3 Bft) 97,87 %
26.05.2019 20:28 20,5 C 19,4 C 18,9 C 66 % 1010,9 hPa 0,0 l/m 0 min 0 min 42 W/m 9,7 km/h (2 Bft) 100,00 %
26.05.2019 20:30 20,5 C 19,4 C 18,9 C 66 % 1010,9 hPa 0,0 l/m 0 min 0 min 36 W/m 25,7 km/h (4 Bft) 100,00 %
26.05.2019 20:32 20,4 C 19,4 C 18,9 C 63 % 1010,8 hPa 0,0 l/m 0 min 0 min 31 W/m 32,2 km/h (5 Bft) 97,83 %
26.05.2019 20:34 20,4 C 19,4 C 18,9 C 63 % 1010,8 hPa 0,0 l/m 0 min 0 min 30 W/m 12,9 km/h (3 Bft) 100,00 %
26.05.2019 20:36 20,3 C 19,4 C 18,9 C 63 % 1010,8 hPa 0,0 l/m 0 min 0 min 28 W/m 22,5 km/h (4 Bft) 100,00 %
26.05.2019 20:38 20,3 C 19,4 C 18,9 C 62 % 1010,8 hPa 0,0 l/m 0 min 0 min 26 W/m 25,7 km/h (4 Bft) 100,00 %
26.05.2019 20:40 20,3 C 19,4 C 18,9 C 63 % 1010,8 hPa 0,0 l/m 0 min 0 min 25 W/m 12,9 km/h (3 Bft) 100,00 %
26.05.2019 20:42 20,3 C 18,9 C 18,9 C 62 % 1010,8 hPa 0,0 l/m 0 min 0 min 25 W/m 22,5 km/h (4 Bft) 100,00 %
26.05.2019 20:44 20,2 C 18,9 C 18,3 C 61 % 1010,7 hPa 0,0 l/m 0 min 0 min 23 W/m 19,3 km/h (3 Bft) 100,00 %
26.05.2019 20:46 20,2 C 18,9 C 18,3 C 61 % 1010,9 hPa 0,0 l/m 0 min 0 min 21 W/m 16,1 km/h (3 Bft) 100,00 %
26.05.2019 20:48 20,1 C 18,9 C 18,3 C 61 % 1010,7 hPa 0,0 l/m 0 min 0 min 18 W/m 12,9 km/h (3 Bft) 97,87 %
26.05.2019 20:50 20,1 C 18,9 C 18,3 C 61 % 1010,8 hPa 0,0 l/m 0 min 0 min 16 W/m 16,1 km/h (3 Bft) 97,87 %
26.05.2019 20:52 20,0 C 18,9 C 18,3 C 62 % 1010,7 hPa 0,0 l/m 0 min 0 min 14 W/m 16,1 km/h (3 Bft) 100,00 %
26.05.2019 20:54 19,9 C 18,9 C 18,3 C 61 % 1010,6 hPa 0,0 l/m 0 min 0 min 12 W/m 12,9 km/h (3 Bft) 100,00 %
26.05.2019 20:56 19,9 C 18,3 C 18,3 C 61 % 1010,6 hPa 0,0 l/m 0 min 0 min 12 W/m 16,1 km/h (3 Bft) 97,83 %
26.05.2019 20:58 19,9 C 18,3 C 17,8 C 61 % 1010,7 hPa 0,0 l/m 0 min 0 min 11 W/m 6,4 km/h (2 Bft) 100,00 %
26.05.2019 21:00 19,8 C 18,3 C 17,8 C 62 % 1010,7 hPa 0,0 l/m 0 min 0 min 11 W/m 9,7 km/h (2 Bft) 100,00 %
26.05.2019 21:02 19,8 C 18,3 C 17,8 C 61 % 1010,7 hPa 0,0 l/m 0 min 0 min 9 W/m 19,3 km/h (3 Bft) 100,00 %
26.05.2019 21:04 19,7 C 18,3 C 17,8 C 61 % 1010,7 hPa 0,0 l/m 0 min 0 min 9 W/m 19,3 km/h (3 Bft) 100,00 %
26.05.2019 21:06 19,7 C 18,3 C 17,8 C 61 % 1010,8 hPa 0,0 l/m 0 min 0 min 9 W/m 9,7 km/h (2 Bft) 100,00 %
26.05.2019 21:08 19,6 C 18,3 C 17,8 C 61 % 1010,6 hPa 0,0 l/m 0 min 0 min 7 W/m 25,7 km/h (4 Bft) 100,00 %
26.05.2019 21:10 19,6 C 18,3 C 17,8 C 61 % 1010,7 hPa 0,0 l/m 0 min 0 min 7 W/m 16,1 km/h (3 Bft) 100,00 %
26.05.2019 21:12 19,4 C 18,3 C 17,8 C 61 % 1010,7 hPa 0,0 l/m 0 min 0 min 7 W/m 9,7 km/h (2 Bft) 100,00 %
26.05.2019 21:14 19,4 C 18,3 C 17,8 C 61 % 1010,7 hPa 0,0 l/m 0 min 0 min 6 W/m 22,5 km/h (4 Bft) 97,87 %
26.05.2019 21:16 19,3 C 18,3 C 17,8 C 61 % 1010,7 hPa 0,0 l/m 0 min 0 min 5 W/m 16,1 km/h (3 Bft) 100,00 %
26.05.2019 21:18 19,3 C 17,8 C 17,8 C 61 % 1010,7 hPa 0,0 l/m 0 min 0 min 5 W/m 9,7 km/h (2 Bft) 100,00 %
26.05.2019 21:20 19,2 C 17,8 C 17,8 C 61 % 1010,7 hPa 0,0 l/m 0 min 0 min 5 W/m 12,9 km/h (3 Bft) 100,00 %
26.05.2019 21:22 19,2 C 17,8 C 17,2 C 62 % 1010,7 hPa 0,0 l/m 0 min 0 min 0 W/m 9,7 km/h (2 Bft) 100,00 %
26.05.2019 21:24 19,2 C 17,8 C 17,2 C 62 % 1010,7 hPa 0,0 l/m 0 min 0 min 0 W/m 12,9 km/h (3 Bft) 100,00 %
26.05.2019 21:26 19,1 C 17,8 C 17,2 C 62 % 1010,6 hPa 0,0 l/m 0 min 0 min 0 W/m 22,5 km/h (4 Bft) 100,00 %
26.05.2019 21:28 19,1 C 17,8 C 17,2 C 62 % 1010,7 hPa 0,0 l/m 0 min 0 min 0 W/m 9,7 km/h (2 Bft) 97,87 %
26.05.2019 21:30 19,0 C 17,8 C 17,2 C 62 % 1010,7 hPa 0,0 l/m 0 min 0 min 0 W/m 19,3 km/h (3 Bft) 100,00 %
26.05.2019 21:32 18,9 C 17,8 C 17,2 C 62 % 1010,7 hPa 0,0 l/m 0 min 0 min 0 W/m 12,9 km/h (3 Bft) 100,00 %
26.05.2019 21:34 18,9 C 17,2 C 17,2 C 62 % 1010,7 hPa 0,0 l/m 0 min 0 min 0 W/m 9,7 km/h (2 Bft) 100,00 %
26.05.2019 21:36 18,9 C 17,2 C 17,2 C 62 % 1010,7 hPa 0,0 l/m 0 min 0 min 0 W/m 9,7 km/h (2 Bft) 100,00 %
26.05.2019 21:38 18,8 C 17,2 C 17,2 C 62 % 1010,8 hPa 0,0 l/m 0 min 0 min 0 W/m 16,1 km/h (3 Bft) 100,00 %
26.05.2019 21:40 18,8 C 17,2 C 17,2 C 63 % 1010,9 hPa 0,0 l/m 0 min 0 min 0 W/m 9,7 km/h (2 Bft) 100,00 %
26.05.2019 21:42 18,7 C 17,8 C 17,2 C 63 % 1010,8 hPa 0,0 l/m 0 min 0 min 0 W/m 6,4 km/h (2 Bft) 97,83 %
26.05.2019 21:44 18,7 C 17,2 C 17,2 C 63 % 1010,8 hPa 0,0 l/m 0 min 0 min 0 W/m 9,7 km/h (2 Bft) 100,00 %
26.05.2019 21:46 18,7 C 17,8 C 17,2 C 63 % 1010,8 hPa 0,0 l/m 0 min 0 min 0 W/m 6,4 km/h (2 Bft) 100,00 %
26.05.2019 21:48 18,7 C 17,8 C 17,2 C 64 % 1010,8 hPa 0,0 l/m 0 min 0 min 0 W/m 9,7 km/h (2 Bft) 97,87 %
26.05.2019 21:50 18,7 C 17,8 C 17,2 C 64 % 1010,7 hPa 0,0 l/m 0 min 0 min 0 W/m 6,4 km/h (2 Bft) 95,74 %
26.05.2019 21:52 18,6 C 17,8 C 17,2 C 64 % 1010,9 hPa 0,0 l/m 0 min 0 min 0 W/m 9,7 km/h (2 Bft) 100,00 %
26.05.2019 21:54 18,6 C 17,8 C 17,2 C 65 % 1010,8 hPa 0,0 l/m 0 min 0 min 0 W/m 16,1 km/h (3 Bft) 100,00 %
26.05.2019 21:56 18,6 C 17,8 C 17,2 C 65 % 1010,9 hPa 0,0 l/m 0 min 0 min 0 W/m 16,1 km/h (3 Bft) 97,87 %
26.05.2019 21:58 18,6 C 17,8 C 17,2 C 65 % 1010,8 hPa 0,0 l/m 0 min 0 min 0 W/m 12,9 km/h (3 Bft) 97,87 %
26.05.2019 22:00 18,6 C 17,8 C 17,2 C 65 % 1010,9 hPa 0,0 l/m 0 min 0 min 0 W/m 16,1 km/h (3 Bft) 97,87 %
26.05.2019 22:02 18,6 C 17,8 C 17,2 C 65 % 1010,8 hPa 0,0 l/m 0 min 0 min 0 W/m 6,4 km/h (2 Bft) 100,00 %
26.05.2019 22:04 18,6 C 17,8 C 17,2 C 66 % 1010,9 hPa 0,0 l/m 0 min 0 min 0 W/m 12,9 km/h (3 Bft) 100,00 %
26.05.2019 22:06 18,5 C 17,8 C 17,2 C 66 % 1010,8 hPa 0,0 l/m 0 min 0 min 0 W/m 6,4 km/h (2 Bft) 95,74 %
26.05.2019 22:08 18,5 C 17,2 C 17,2 C 66 % 1010,9 hPa 0,0 l/m 0 min 0 min 0 W/m 6,4 km/h (2 Bft) 97,87 %
26.05.2019 22:10 18,5 C 17,2 C 17,2 C 66 % 1010,9 hPa 0,0 l/m 0 min 0 min 0 W/m 6,4 km/h (2 Bft) 97,87 %
26.05.2019 22:12 18,5 C 17,2 C 17,2 C 67 % 1010,9 hPa 0,0 l/m 0 min 0 min 0 W/m 12,9 km/h (3 Bft) 95,65 %
26.05.2019 22:14 18,4 C 17,2 C 16,7 C 67 % 1011,0 hPa 0,0 l/m 0 min 0 min 0 W/m 6,4 km/h (2 Bft) 97,87 %
26.05.2019 22:18 18,4 C 17,2 C 17,2 C 69 % 1010,9 hPa 0,0 l/m 0 min 0 min 0 W/m 25,7 km/h (4 Bft) 94,90 %
26.05.2019 22:20 18,4 C 17,2 C 17,2 C 70 % 1011,0 hPa 0,0 l/m 0 min 0 min 0 W/m 22,5 km/h (4 Bft) 97,14 %
26.05.2019 22:22 18,4 C 17,2 C 17,2 C 71 % 1011,0 hPa 0,0 l/m 0 min 0 min 0 W/m 32,2 km/h (5 Bft) 96,23 %
26.05.2019 22:24 18,4 C 17,2 C 16,7 C 71 % 1010,9 hPa 0,0 l/m 0 min 0 min 0 W/m 12,9 km/h (3 Bft) 96,08 %
26.05.2019 22:26 18,3 C 17,2 C 16,7 C 72 % 1010,9 hPa 0,0 l/m 0 min 0 min 0 W/m 22,5 km/h (4 Bft) 91,49 %
26.05.2019 22:28 18,3 C 17,2 C 16,7 C 72 % 1010,9 hPa 0,0 l/m 0 min 0 min 0 W/m 19,3 km/h (3 Bft) 95,65 %
26.05.2019 22:30 18,3 C 17,2 C 16,7 C 73 % 1010,9 hPa 0,0 l/m 0 min 0 min 0 W/m 16,1 km/h (3 Bft) 95,74 %
26.05.2019 22:32 18,2 C 17,2 C 16,7 C 73 % 1010,8 hPa 0,0 l/m 0 min 0 min 0 W/m 22,5 km/h (4 Bft) 95,74 %
26.05.2019 22:34 18,2 C 17,2 C 16,7 C 73 % 1010,9 hPa 0,0 l/m 0 min 0 min 0 W/m 12,9 km/h (3 Bft) 95,74 %
26.05.2019 22:36 18,2 C 16,7 C 16,7 C 74 % 1010,9 hPa 0,0 l/m 0 min 0 min 0 W/m 9,7 km/h (2 Bft) 93,62 %
26.05.2019 22:38 18,1 C 16,7 C 16,7 C 74 % 1010,8 hPa 0,0 l/m 0 min 0 min 0 W/m 12,9 km/h (3 Bft) 93,62 %
26.05.2019 22:40 18,1 C 16,7 C 16,7 C 74 % 1010,8 hPa 0,0 l/m 0 min 0 min 0 W/m 9,7 km/h (2 Bft) 95,74 %
26.05.2019 22:42 18,1 C 16,7 C 16,7 C 74 % 1010,8 hPa 0,0 l/m 0 min 0 min 0 W/m 16,1 km/h (3 Bft) 93,48 %
26.05.2019 22:44 18,0 C 16,7 C 16,7 C 75 % 1010,8 hPa 0,0 l/m 0 min 0 min 0 W/m 6,4 km/h (2 Bft) 91,49 %
26.05.2019 22:46 18,0 C 16,7 C 16,7 C 75 % 1010,8 hPa 0,0 l/m 0 min 0 min 0 W/m 19,3 km/h (3 Bft) 91,49 %
26.05.2019 22:48 17,9 C 16,7 C 16,7 C 75 % 1010,8 hPa 0,0 l/m 0 min 0 min 0 W/m 6,4 km/h (2 Bft) 93,62 %
26.05.2019 22:50 17,9 C 16,7 C 16,7 C 75 % 1010,9 hPa 0,0 l/m 0 min 0 min 0 W/m 9,7 km/h (2 Bft) 95,74 %
26.05.2019 22:52 17,9 C 16,7 C 16,7 C 75 % 1010,9 hPa 0,0 l/m 0 min 0 min 0 W/m 19,3 km/h (3 Bft) 91,30 %
26.05.2019 22:54 17,9 C 16,7 C 16,7 C 75 % 1010,8 hPa 0,0 l/m 0 min 0 min 0 W/m 12,9 km/h (3 Bft) 91,49 %
26.05.2019 22:56 17,8 C 16,7 C 16,7 C 75 % 1010,8 hPa 0,0 l/m 0 min 0 min 0 W/m 16,1 km/h (3 Bft) 91,49 %
26.05.2019 22:58 17,8 C 16,7 C 16,7 C 75 % 1010,7 hPa 0,0 l/m 0 min 0 min 0 W/m 9,7 km/h (2 Bft) 97,87 %
26.05.2019 23:00 17,8 C 16,7 C 16,7 C 75 % 1010,7 hPa 0,0 l/m 0 min 0 min 0 W/m 9,7 km/h (2 Bft) 95,74 %
26.05.2019 23:02 17,8 C 16,7 C 16,7 C 75 % 1010,8 hPa 0,0 l/m 0 min 0 min 0 W/m 16,1 km/h (3 Bft) 97,87 %
26.05.2019 23:04 17,7 C 16,7 C 16,1 C 75 % 1010,7 hPa 0,0 l/m 0 min 0 min 0 W/m 22,5 km/h (4 Bft) 97,83 %
26.05.2019 23:06 17,7 C 16,7 C 16,1 C 75 % 1010,6 hPa 0,0 l/m 0 min 0 min 0 W/m 9,7 km/h (2 Bft) 97,87 %
26.05.2019 23:08 17,7 C 16,7 C 16,1 C 75 % 1010,6 hPa 0,0 l/m 0 min 0 min 0 W/m 12,9 km/h (3 Bft) 97,87 %
26.05.2019 23:10 17,6 C 16,7 C 16,1 C 75 % 1010,6 hPa 0,0 l/m 0 min 0 min 0 W/m 19,3 km/h (3 Bft) 97,87 %
26.05.2019 23:12 17,6 C 16,1 C 16,1 C 75 % 1010,6 hPa 0,0 l/m 0 min 0 min 0 W/m 9,7 km/h (2 Bft) 97,87 %
26.05.2019 23:14 17,5 C 16,1 C 16,1 C 76 % 1010,6 hPa 0,0 l/m 0 min 0 min 0 W/m 19,3 km/h (3 Bft) 97,87 %
26.05.2019 23:16 17,4 C 16,1 C 16,1 C 76 % 1010,6 hPa 0,0 l/m 0 min 0 min 0 W/m 9,7 km/h (2 Bft) 97,83 %
26.05.2019 23:18 17,4 C 16,1 C 16,1 C 76 % 1010,6 hPa 0,0 l/m 0 min 0 min 0 W/m 9,7 km/h (2 Bft) 95,74 %
26.05.2019 23:20 17,4 C 16,1 C 15,6 C 76 % 1010,5 hPa 0,0 l/m 0 min 0 min 0 W/m 6,4 km/h (2 Bft) 97,87 %
26.05.2019 23:22 17,4 C 16,1 C 15,6 C 76 % 1010,6 hPa 0,0 l/m 0 min 0 min 0 W/m 12,9 km/h (3 Bft) 97,87 %
26.05.2019 23:24 17,3 C 15,6 C 15,6 C 76 % 1010,5 hPa 0,0 l/m 0 min 0 min 0 W/m 19,3 km/h (3 Bft) 97,87 %
26.05.2019 23:26 17,2 C 15,6 C 15,6 C 76 % 1010,5 hPa 0,0 l/m 0 min 0 min 0 W/m 16,1 km/h (3 Bft) 97,87 %
26.05.2019 23:28 17,2 C 15,6 C 15,6 C 76 % 1010,5 hPa 0,0 l/m 0 min 0 min 0 W/m 16,1 km/h (3 Bft) 97,83 %
26.05.2019 23:30 17,2 C 15,6 C 15,6 C 76 % 1010,5 hPa 0,0 l/m 0 min 0 min 0 W/m 16,1 km/h (3 Bft) 97,87 %
26.05.2019 23:32 17,1 C 15,6 C 15,6 C 77 % 1010,5 hPa 0,0 l/m 0 min 0 min 0 W/m 9,7 km/h (2 Bft) 95,74 %
26.05.2019 23:34 17,0 C 15,6 C 15,6 C 77 % 1010,5 hPa 0,0 l/m 0 min 0 min 0 W/m 25,7 km/h (4 Bft) 97,87 %
26.05.2019 23:36 16,9 C 15,6 C 15,6 C 77 % 1010,7 hPa 0,0 l/m 0 min 0 min 0 W/m 19,3 km/h (3 Bft) 97,87 %
26.05.2019 23:38 16,9 C 15,6 C 15,0 C 77 % 1010,5 hPa 0,0 l/m 0 min 0 min 0 W/m 12,9 km/h (3 Bft) 97,87 %
26.05.2019 23:40 16,8 C 15,6 C 15,6 C 78 % 1010,6 hPa 0,0 l/m 0 min 0 min 0 W/m 38,6 km/h (5 Bft) 97,83 %
26.05.2019 23:42 16,8 C 15,6 C 15,0 C 78 % 1010,6 hPa 0,0 l/m 0 min 0 min 0 W/m 16,1 km/h (3 Bft) 97,87 %
26.05.2019 23:44 16,7 C 15,6 C 15,0 C 78 % 1010,5 hPa 0,0 l/m 0 min 0 min 0 W/m 22,5 km/h (4 Bft) 100,00 %
26.05.2019 23:46 16,7 C 15,6 C 15,0 C 78 % 1010,5 hPa 0,0 l/m 0 min 0 min 0 W/m 22,5 km/h (4 Bft) 100,00 %
26.05.2019 23:48 16,6 C 15,6 C 15,0 C 78 % 1010,5 hPa 0,0 l/m 0 min 0 min 0 W/m 22,5 km/h (4 Bft) 95,74 %
26.05.2019 23:50 16,6 C 15,0 C 15,0 C 78 % 1010,5 hPa 0,0 l/m 0 min 0 min 0 W/m 12,9 km/h (3 Bft) 97,87 %
26.05.2019 23:52 16,6 C 15,0 C 15,0 C 78 % 1010,6 hPa 0,0 l/m 0 min 0 min 0 W/m 16,1 km/h (3 Bft) 100,00 %
26.05.2019 23:54 16,5 C 15,0 C 15,0 C 79 % 1010,5 hPa 0,0 l/m 0 min 0 min 0 W/m 19,3 km/h (3 Bft) 100,00 %
26.05.2019 23:56 16,5 C 15,0 C 15,0 C 79 % 1010,4 hPa 0,0 l/m 0 min 0 min 0 W/m 16,1 km/h (3 Bft) 97,87 %
26.05.2019 23:58 16,4 C 15,0 C 15,0 C 79 % 1010,4 hPa 0,0 l/m 0 min 0 min 0 W/m 9,7 km/h (2 Bft) 100,00 %
_ Min-Zeit 05:44 01:54 01:56 20:44 23:56 - - - - 00:00 19:44
Minimum _ 11,0 C 9,4 C 8,9 C 61 % 1010,4 hPa - - - - 0,0 km/h (0 Bft) 89,36 %
_ Max-Zeit 15:30 09:52 09:52 06:24 00:00 00:00 08:58 00:00 09:48 23:40 00:04
Maximum _ 21,7 C 24,4 C 23,9 C 93 % 1017,2 hPa 0,0 l/m 2 min 0 min 647 W/m 38,6 km/h
O-SO (5 Bft)
100,00 %
Durchschnitt _ 16,7 C 16,7 C 16,1 C 76 % 1014,0 hPa #0,0 l/m #2:16 h #0 min. 209 W/m 11,0 km/h (2 Bft) 97,49 %
© 2019 W. Hausmann